WSLA411 Weather Reports


time (UTC)temp
F
wind
direction
speed
knots
gust
knots
rain 1hr
in
rain 24hr
in
rain mn
in
humidity
%
barometer
mb
20260505164434 58 128 0.9 1.7 0.00 0.07 0.00 80 1015.8
20260505164332 58 285 0.9 1.7 0.00 0.07 0.00 80 1015.9
20260505164232 58 103 0.9 1.7 0.00 0.07 0.00 81 1015.9
20260505164029 58 99 0.9 1.7 0.00 0.07 0.00 81 1015.8
20260505163927 58 330 0.9 1.7 0.00 0.07 0.00 81 1015.8
20260505163827 58 115 0.9 1.7 0.00 0.07 0.00 81 1015.8
20260505163723 58 75 0.9 1.7 0.00 0.07 0.00 82 1015.8
20260505163522 58 14 0.9 1.7 0.00 0.07 0.00 82 1015.8
20260505163423 58 0 0.9 1.7 0.00 0.07 0.00 82 1015.8
20260505163322 58 52 0.9 1.7 0.00 0.07 0.00 82 1015.8
20260505163220 58 85 0.9 1.7 0.00 0.07 0.00 82 1015.8
20260505163021 58 89 0.9 1.7 0.00 0.07 0.00 82 1015.8
20260505162920 58 169 0.9 1.7 0.00 0.07 0.00 82 1015.7
20260505162820 58 312 0.9 1.7 0.00 0.07 0.00 81 1015.7
20260505162720 58 82 0.9 2.6 0.00 0.07 0.00 81 1015.7
20260505162520 58 120 0.9 2.6 0.00 0.07 0.00 81 1015.7
20260505162419 58 164 0.9 2.6 0.00 0.07 0.00 82 1015.7
20260505162320 58 136 0.9 2.6 0.00 0.07 0.00 82 1015.8
20260505162220 58 81 0.9 2.6 0.00 0.07 0.00 82 1015.8
20260505162020 57 86 0.9 2.6 0.00 0.07 0.00 82 1015.8
20260505161920 57 80 0.9 2.6 0.00 0.07 0.00 82 1015.7
20260505161820 57 118 0.9 2.6 0.00 0.07 0.00 83 1015.7
20260505161742 57 131 0.9 1.7 0.00 0.07 0.00 83 1015.7
20260505161726 57 82 0.9 1.7 0.00 0.07 0.00 83 1015.7
20260505161520 57 28 0.9 2.6 0.00 0.07 0.00 83 1015.7
20260505161420 57 98 0.9 2.6 0.00 0.07 0.00 83 1015.7
20260505161320 57 76 0.9 2.6 0.00 0.07 0.00 83 1015.7
20260505161242 57 131 0.9 2.6 0.00 0.07 0.00 83 1015.7
20260505161227 57 167 0.9 2.6 0.00 0.07 0.00 84 1015.7
20260505161021 57 83 0.9 2.6 0.00 0.07 0.00 84 1015.7
20260505160920 57 107 0.9 2.6 0.00 0.07 0.00 84 1015.7
20260505160820 57 103 0.9 2.6 0.00 0.07 0.00 84 1015.7
20260505160742 57 80 0.9 2.6 0.00 0.07 0.00 84 1015.7
20260505160726 57 191 0.9 2.6 0.00 0.07 0.00 84 1015.7
20260505160520 57 166 0.9 1.7 0.00 0.07 0.00 84 1015.7
20260505160421 56 169 0.9 1.7 0.00 0.07 0.00 85 1015.7
20260505160320 56 79 0.9 1.7 0.00 0.07 0.00 85 1015.7
20260505160221 56 189 0.9 1.7 0.00 0.07 0.00 86 1015.7
20260505153304 56 58 0.9 2.6 0.00 0.07 0.00 88 1015.6
20260505153203 56 182 0.9 2.6 0.00 0.07 0.00 88 1015.7
20260505153102 56 182 0.9 2.6 0.00 0.07 0.00 87 1015.7
20260505153003 56 68 0.9 2.6 0.00 0.07 0.00 87 1015.6
20260505152903 56 21 0.9 2.6 0.00 0.07 0.00 87 1015.6
20260505152803 56 125 0.9 2.6 0.00 0.07 0.00 87 1015.6
20260505152703 56 233 0.9 2.6 0.00 0.07 0.00 87 1015.6
20260505152603 56 94 0.9 2.6 0.00 0.07 0.00 87 1015.6
20260505152502 56 179 0.9 1.7 0.00 0.07 0.00 87 1015.6
20260505152404 56 228 0.9 1.7 0.00 0.07 0.00 86 1015.6
20260505152305 56 244 0.9 1.7 0.00 0.07 0.00 86 1015.6
20260505152203 56 9 0.9 1.7 0.00 0.07 0.00 87 1015.6
20260505152104 56 225 0.9 1.7 0.00 0.07 0.00 87 1015.6
20260505152004 56 179 0.9 1.7 0.00 0.07 0.00 87 1015.6
20260505151903 56 89 0.9 1.7 0.00 0.07 0.00 87 1015.6
20260505151804 56 0 0.9 1.7 0.00 0.07 0.00 87 1015.6
20260505151702 56 130 0.9 1.7 0.00 0.07 0.00 87 1015.6
20260505151602 56 113 0.9 1.7 0.00 0.07 0.00 87 1015.6
20260505151502 56 154 0.9 1.7 0.00 0.07 0.00 87 1015.6
20260505151402 56 151 0.9 1.7 0.00 0.07 0.00 87 1015.6
20260505151302 56 165 0.9 1.7 0.00 0.07 0.00 87 1015.6
20260505151202 56 130 0.9 1.7 0.00 0.07 0.00 87 1015.6
20260505151102 56 136 0.9 1.7 0.00 0.07 0.00 87 1015.6
20260505151002 56 99 0.9 1.7 0.00 0.07 0.00 86 1015.6
20260505150802 55 164 0.9 1.7 0.00 0.07 0.00 87 1015.6
20260505150702 55 0 0.9 1.7 0.00 0.07 0.00 87 1015.6
20260505150602 55 94 0.9 1.7 0.00 0.07 0.00 87 1015.5
20260505150502 55 92 0.9 1.7 0.00 0.07 0.00 87 1015.5
20260505150402 55 123 0.9 1.7 0.00 0.07 0.00 87 1015.5
20260505150302 55 139 0.9 1.7 0.00 0.07 0.00 87 1015.5
20260505150202 55 104 0.9 1.7 0.00 0.07 0.00 87 1015.5
20260505140556 55 72 0.9 1.7 0.00 0.07 0.00 88 1015.0
20260505140457 55 75 0.9 1.7 0.00 0.07 0.00 89 1015.0
20260505140357 55 92 0.9 1.7 0.00 0.07 0.00 88 1015.0
20260505140257 55 179 0.9 1.7 0.00 0.07 0.00 88 1015.0
20260505140156 55 5 0.9 1.7 0.00 0.07 0.00 88 1015.0
20260505130241 55 121 0.9 1.7 0.00 0.07 0.00 87 1014.7
20260505130141 55 187 0.9 1.7 0.00 0.07 0.00 87 1014.7
20260505125032 55 139 0.9 1.7 0.00 0.07 0.00 87 1014.6
20260505124932 55 117 0.9 1.7 0.00 0.07 0.00 87 1014.6
20260505124833 55 103 0.9 1.7 0.00 0.07 0.00 87 1014.6
20260505124733 55 78 0.9 1.7 0.00 0.07 0.00 87 1014.6
20260505124630 55 3 0.9 1.7 0.00 0.07 0.00 87 1014.6
20260505124530 55 103 0.9 1.7 0.00 0.07 0.00 87 1014.6
20260505124429 55 171 0.0 1.7 0.00 0.07 0.00 87 1014.6
20260505124330 55 140 0.9 1.7 0.00 0.07 0.00 87 1014.6
20260505124230 55 134 0.0 1.7 0.00 0.07 0.00 87 1014.6
20260505124212 55 183 0.0 1.7 0.00 0.07 0.00 87 1014.6
20260505124029 55 0 0.9 1.7 0.00 0.07 0.00 87 1014.6
20260505123927 55 210 0.9 1.7 0.00 0.07 0.00 87 1014.6
20260505123827 55 84 0.9 1.7 0.00 0.07 0.00 87 1014.6
20260505123728 55 126 0.9 1.7 0.00 0.07 0.00 87 1014.6
20260505123627 55 108 0.9 1.7 0.00 0.07 0.00 87 1014.6
20260505123527 55 100 0.9 1.7 0.00 0.07 0.00 87 1014.5
20260505123428 55 76 0.9 1.7 0.00 0.07 0.00 87 1014.5
20260505123327 55 168 0.9 1.7 0.00 0.07 0.00 87 1014.5
20260505123228 55 174 0.9 1.7 0.00 0.07 0.00 87 1014.5
20260505123208 55 162 0.9 1.7 0.00 0.07 0.00 87 1014.5
20260505123028 55 167 0.9 1.7 0.00 0.07 0.00 87 1014.5
20260505122927 55 184 0.9 1.7 0.00 0.07 0.00 87 1014.5
20260505122827 55 155 0.9 1.7 0.00 0.07 0.00 87 1014.5
20260505122728 55 129 0.9 0.9 0.00 0.07 0.00 87 1014.5
20260505122626 55 175 0.9 0.9 0.00 0.07 0.00 87 1014.6
20260505122527 55 170 0.9 0.9 0.00 0.07 0.00 87 1014.6
20260505122438 55 160 0.9 0.9 0.00 0.07 0.00 87 1014.6
20260505122430 55 86 0.9 0.9 0.00 0.07 0.00 87 1014.6
20260505122228 55 148 0.9 1.7 0.00 0.07 0.00 87 1014.6
20260505122209 55 129 0.9 1.7 0.00 0.07 0.00 87 1014.6
20260505122028 55 169 0.9 1.7 0.00 0.07 0.00 87 1014.6
20260505121927 55 172 0.9 1.7 0.00 0.07 0.00 87 1014.6
20260505121828 55 165 0.9 1.7 0.00 0.07 0.00 87 1014.5
20260505121727 55 0 0.9 1.7 0.00 0.07 0.00 87 1014.5
20260505121710 55 83 0.9 1.7 0.00 0.07 0.00 87 1014.5
20260505121528 55 95 0.9 1.7 0.00 0.07 0.00 87 1014.5
20260505121427 55 76 0.9 1.7 0.00 0.07 0.00 87 1014.5
20260505121327 55 0 0.9 1.7 0.00 0.07 0.00 87 1014.5
20260505121228 55 155 0.9 1.7 0.00 0.07 0.00 87 1014.5
20260505121127 55 140 0.9 2.6 0.00 0.07 0.00 87 1014.5
20260505121027 55 157 0.9 2.6 0.00 0.07 0.00 87 1014.5
20260505120926 55 183 0.9 2.6 0.00 0.07 0.00 87 1014.5
20260505120828 55 24 0.9 2.6 0.00 0.07 0.00 88 1014.5
20260505120729 55 96 0.9 2.6 0.00 0.07 0.00 87 1014.5
20260505120709 55 86 0.0 2.6 0.00 0.07 0.00 87 1014.5
20260505120526 55 101 0.9 2.6 0.00 0.07 0.00 87 1014.5
20260505120426 55 2 0.0 2.6 0.00 0.07 0.00 87 1014.5
20260505120329 55 86 0.0 2.6 0.00 0.07 0.00 87 1014.5
20260505120224 55 0 0.9 2.6 0.00 0.07 0.00 87 1014.5
20260505120209 55 233 0.0 1.7 0.00 0.07 0.00 87 1014.5
20260505120025 55 111 0.0 1.7 0.00 0.07 0.00 87 1014.5
20260505115924 55 281 0.0 0.9 0.00 0.07 0.00 87 1014.5
20260505115825 55 167 0.0 0.9 0.00 0.07 0.00 87 1014.5
20260505115723 55 166 0.0 0.9 0.00 0.07 0.00 87 1014.5
20260505115618 55 104 0.0 0.9 0.00 0.07 0.00 87 1014.5
20260505115518 55 179 0.0 0.9 0.00 0.07 0.00 87 1014.5
20260505115418 55 88 0.9 0.9 0.00 0.07 0.00 87 1014.5
20260505115318 55 122 0.9 0.9 0.00 0.07 0.00 87 1014.5
20260505115221 55 124 0.9 1.7 0.00 0.07 0.00 87 1014.5
20260505115116 55 122 0.9 1.7 0.00 0.07 0.00 87 1014.5
20260505115017 55 69 0.9 1.7 0.00 0.07 0.00 87 1014.5
20260505114912 55 138 0.9 1.7 0.00 0.07 0.00 87 1014.5
20260505114813 55 185 0.9 1.7 0.00 0.07 0.00 87 1014.5
20260505114713 55 171 0.9 1.7 0.00 0.07 0.00 87 1014.5
20260505114613 55 178 0.9 1.7 0.00 0.07 0.00 87 1014.5
20260505114513 55 84 0.9 1.7 0.00 0.07 0.00 87 1014.5
20260505114413 55 120 0.9 1.7 0.00 0.07 0.00 87 1014.5
20260505114311 55 107 0.9 1.7 0.00 0.07 0.00 87 1014.5
20260505114210 55 131 0.9 1.7 0.00 0.07 0.00 87 1014.5
20260505114109 55 86 0.0 1.7 0.00 0.07 0.00 86 1014.5
20260505114010 55 121 0.0 1.7 0.00 0.07 0.00 87 1014.5
20260505113910 55 143 0.0 1.7 0.00 0.07 0.00 87 1014.4
20260505113811 55 173 0.0 0.9 0.00 0.07 0.00 87 1014.4
20260505113709 55 0 0.0 1.7 0.00 0.07 0.00 87 1014.4
20260505113607 55 129 0.0 1.7 0.00 0.07 0.00 87 1014.5
20260505113508 55 143 0.0 1.7 0.00 0.07 0.00 87 1014.5
20260505113407 55 181 0.9 1.7 0.00 0.07 0.00 87 1014.5
20260505113307 55 189 0.9 1.7 0.00 0.07 0.00 87 1014.4
20260505113207 55 101 0.9 1.7 0.00 0.07 0.00 87 1014.4
20260505113107 55 178 0.9 1.7 0.00 0.07 0.00 87 1014.4
20260505113007 55 95 0.9 1.7 0.00 0.07 0.00 86 1014.4
20260505112907 55 175 0.9 1.7 0.00 0.07 0.00 86 1014.4
20260505112807 55 127 0.9 1.7 0.00 0.07 0.00 86 1014.4
20260505112707 55 118 0.9 1.7 0.00 0.07 0.00 87 1014.4
20260505112607 55 0 0.9 1.7 0.00 0.07 0.00 86 1014.4
20260505112508 55 136 0.9 1.7 0.00 0.07 0.00 86 1014.5
20260505112406 55 153 0.9 1.7 0.00 0.07 0.00 86 1014.5
20260505112306 55 113 0.9 1.7 0.00 0.07 0.00 86 1014.5
20260505112207 55 97 0.9 1.7 0.00 0.07 0.00 86 1014.5
20260505112107 55 55 0.9 1.7 0.00 0.07 0.00 86 1014.5
20260505112006 55 166 0.9 1.7 0.00 0.07 0.00 86 1014.5
20260505111906 55 166 0.9 1.7 0.00 0.07 0.00 86 1014.4
20260505111806 55 127 0.9 1.7 0.00 0.07 0.00 86 1014.4
20260505111707 55 174 0.9 1.7 0.00 0.07 0.00 86 1014.4
20260505111606 55 174 0.9 1.7 0.00 0.07 0.00 86 1014.4
20260505111506 55 89 0.9 1.7 0.00 0.07 0.00 87 1014.5
20260505111406 55 138 0.9 1.7 0.00 0.07 0.00 87 1014.4
20260505111307 55 175 0.9 1.7 0.00 0.07 0.00 87 1014.4
20260505111206 55 111 0.9 1.7 0.00 0.07 0.00 87 1014.4
20260505111106 55 113 0.9 1.7 0.00 0.07 0.00 87 1014.4
20260505111007 55 288 0.9 1.7 0.00 0.07 0.00 87 1014.4
20260505110906 55 16 0.9 1.7 0.00 0.07 0.00 87 1014.4
20260505110806 55 85 0.9 1.7 0.00 0.07 0.00 87 1014.4
20260505110707 55 162 0.9 1.7 0.00 0.07 0.00 87 1014.4
20260505110607 55 176 0.9 1.7 0.00 0.07 0.00 87 1014.4
20260505110508 55 87 0.9 1.7 0.00 0.07 0.00 87 1014.4
20260505110407 55 82 0.9 1.7 0.00 0.07 0.00 87 1014.3
20260505110307 55 0 0.9 1.7 0.00 0.07 0.00 86 1014.3
20260505110206 55 164 0.9 1.7 0.00 0.07 0.00 86 1014.3
20260505110106 55 191 0.9 1.7 0.00 0.07 0.00 86 1014.3
20260505102141 55 183 0.9 1.7 0.00 0.07 0.00 85 1014.0
20260505102041 55 116 0.9 1.7 0.00 0.07 0.00 85 1014.0
20260505101941 55 159 0.9 1.7 0.00 0.07 0.00 86 1014.0
20260505101841 55 84 0.9 1.7 0.00 0.07 0.00 86 1013.9
20260505101742 55 72 0.9 1.7 0.00 0.07 0.00 85 1013.9
20260505101641 55 75 0.9 1.7 0.00 0.07 0.00 85 1013.9
20260505101541 55 110 0.9 1.7 0.00 0.07 0.00 85 1013.9
20260505101440 55 0 0.9 1.7 0.00 0.07 0.00 85 1013.9
20260505101341 55 190 0.9 1.7 0.00 0.07 0.00 85 1013.9
20260505101241 55 0 0.9 1.7 0.00 0.07 0.00 85 1013.9
20260505101142 55 94 0.9 1.7 0.00 0.07 0.00 85 1014.0
20260505101042 55 66 0.9 1.7 0.00 0.07 0.00 86 1014.0
20260505100941 55 107 0.9 1.7 0.00 0.07 0.00 86 1014.0
20260505100841 55 187 0.9 1.7 0.00 0.07 0.00 85 1014.0
20260505100742 55 0 0.9 1.7 0.00 0.07 0.00 85 1014.0
20260505100642 55 87 0.9 1.7 0.00 0.07 0.00 85 1014.0
20260505100542 55 169 0.9 1.7 0.00 0.07 0.00 85 1014.0
20260505100442 55 159 0.9 1.7 0.00 0.07 0.00 85 1014.0
20260505100341 55 117 0.9 1.7 0.00 0.07 0.00 85 1014.0
20260505100241 55 82 0.9 1.7 0.00 0.07 0.00 85 1014.0
20260505100158 55 132 0.9 1.7 0.00 0.07 0.00 85 1014.0
20260505100038 55 180 0.9 1.7 0.00 0.07 0.00 85 1014.0
20260505095938 55 158 0.9 1.7 0.00 0.07 0.00 85 1014.0
20260505095837 55 155 0.9 1.7 0.00 0.07 0.00 85 1014.0
20260505095737 55 160 0.0 1.7 0.00 0.07 0.00 85 1014.0
20260505095637 55 83 0.0 1.7 0.00 0.07 0.00 85 1014.0
20260505095536 55 74 0.0 1.7 0.00 0.07 0.00 85 1014.0
20260505095435 55 99 0.0 1.7 0.00 0.07 0.00 85 1014.0
20260505095335 55 76 0.0 0.9 0.00 0.07 0.00 85 1014.0
20260505095233 55 169 0.0 1.7 0.00 0.07 0.00 85 1014.0
20260505095129 55 89 0.9 1.7 0.00 0.07 0.00 85 1014.0
20260505095030 55 0 0.9 1.7 0.00 0.07 0.00 85 1014.0
20260505094926 55 177 0.9 1.7 0.00 0.07 0.00 85 1014.0
20260505094823 55 77 0.9 1.7 0.00 0.07 0.00 85 1014.0
20260505094722 56 180 0.9 1.7 0.00 0.07 0.00 85 1014.0
20260505094621 56 111 0.9 1.7 0.00 0.07 0.00 85 1014.0
20260505094518 56 102 0.9 1.7 0.00 0.07 0.00 85 1014.0
20260505094417 56 94 0.9 1.7 0.00 0.07 0.00 85 1013.9
20260505094317 56 63 0.9 1.7 0.00 0.07 0.00 84 1013.9
20260505094218 56 162 0.9 1.7 0.00 0.07 0.00 84 1013.9
20260505094117 56 179 0.9 1.7 0.00 0.07 0.00 84 1013.9
20260505094017 56 177 0.9 1.7 0.00 0.07 0.00 84 1013.9
20260505093916 56 73 0.9 1.7 0.00 0.07 0.00 84 1013.9
20260505093814 56 145 0.9 1.7 0.00 0.07 0.00 84 1013.9
20260505093716 56 184 0.9 1.7 0.00 0.07 0.00 84 1013.9
20260505093611 56 107 0.9 1.7 0.00 0.07 0.00 84 1013.9
20260505093512 56 174 0.9 1.7 0.00 0.07 0.00 83 1013.9
20260505093409 56 144 0.9 1.7 0.00 0.07 0.00 83 1013.9
20260505093310 56 0 0.9 1.7 0.00 0.07 0.00 83 1013.9
20260505093213 56 123 0.9 1.7 0.00 0.07 0.00 83 1013.9
20260505093147 56 188 0.9 1.7 0.00 0.07 0.00 83 1013.8
20260505093007 56 136 0.9 1.7 0.00 0.07 0.00 83 1013.8
20260505092908 56 112 0.9 1.7 0.00 0.07 0.00 83 1013.8
20260505092808 56 119 0.9 1.7 0.00 0.07 0.00 83 1013.8
20260505092713 56 118 0.9 1.7 0.00 0.07 0.00 84 1013.8
20260505092608 56 112 0.9 1.7 0.00 0.07 0.00 83 1013.8
20260505092508 56 163 0.9 1.7 0.00 0.07 0.00 83 1013.8
20260505092408 56 91 0.9 1.7 0.00 0.07 0.00 83 1013.8
20260505092310 56 85 0.9 1.7 0.00 0.07 0.00 83 1013.8
20260505092211 56 87 0.9 1.7 0.00 0.07 0.00 84 1013.8
20260505092152 56 54 0.9 1.7 0.00 0.07 0.00 83 1013.8
20260505092008 56 74 0.9 1.7 0.00 0.07 0.00 83 1013.8
20260505091908 56 87 0.9 1.7 0.00 0.07 0.00 83 1013.8
20260505091808 56 0 0.9 1.7 0.00 0.07 0.00 83 1013.8
20260505091712 56 94 0.9 1.7 0.00 0.07 0.00 83 1013.7
20260505091608 56 249 0.9 1.7 0.00 0.07 0.00 83 1013.7
20260505091508 56 206 0.9 1.7 0.00 0.07 0.00 83 1013.7
20260505091408 56 153 0.9 1.7 0.00 0.07 0.00 83 1013.7
20260505091308 57 182 0.9 1.7 0.00 0.07 0.00 84 1013.7
20260505091212 57 127 0.9 1.7 0.00 0.07 0.00 83 1013.7
20260505091107 57 169 0.9 1.7 0.00 0.07 0.00 83 1013.7
20260505091008 57 165 0.9 1.7 0.00 0.07 0.00 83 1013.6
20260505090908 57 75 0.9 1.7 0.00 0.07 0.00 83 1013.6
20260505090808 57 175 0.9 1.7 0.00 0.07 0.00 83 1013.6
20260505090712 57 77 0.9 1.7 0.00 0.07 0.00 83 1013.6
20260505090608 57 70 0.9 1.7 0.00 0.07 0.00 83 1013.6
20260505090509 57 162 0.9 1.7 0.00 0.07 0.00 83 1013.6
20260505090408 57 65 0.9 1.7 0.00 0.07 0.00 83 1013.6
20260505090309 57 168 0.9 1.7 0.00 0.07 0.00 83 1013.6
20260505090211 57 0 0.9 1.7 0.00 0.07 0.00 83 1013.5
20260505090149 57 91 0.9 1.7 0.00 0.07 0.00 83 1013.5
20260505090008 57 73 0.9 1.7 0.00 0.07 0.00 82 1013.5
20260505085908 57 94 0.9 1.7 0.00 0.07 0.00 82 1013.5
20260505085808 57 76 0.9 1.7 0.00 0.07 0.00 82 1013.5
20260505085711 57 178 0.9 1.7 0.00 0.07 0.00 82 1013.5
20260505085608 57 0 0.9 1.7 0.00 0.07 0.00 82 1013.5
20260505085508 57 80 0.9 1.7 0.00 0.07 0.00 82 1013.5
20260505085408 57 83 0.9 1.7 0.00 0.07 0.00 82 1013.5
20260505085308 57 87 0.9 1.7 0.00 0.07 0.00 82 1013.5
20260505085211 57 83 0.9 1.7 0.00 0.07 0.00 82 1013.5
20260505085108 57 163 0.9 1.7 0.00 0.07 0.00 82 1013.5
20260505085007 57 86 0.9 1.7 0.00 0.07 0.00 82 1013.5
20260505084907 57 94 0.9 1.7 0.00 0.07 0.00 83 1013.5
20260505084808 57 0 0.9 1.7 0.00 0.07 0.00 83 1013.5
20260505084706 57 87 0.9 1.7 0.00 0.07 0.00 83 1013.6
20260505084604 57 0 0.9 1.7 0.00 0.07 0.00 83 1013.6
20260505084500 57 89 0.9 1.7 0.00 0.07 0.00 84 1013.6
20260505084358 57 80 0.9 1.7 0.00 0.07 0.00 83 1013.6
20260505084258 57 118 0.9 1.7 0.00 0.07 0.00 84 1013.6
20260505084158 57 268 0.9 0.9 0.00 0.07 0.00 84 1013.5
20260505084058 57 82 0.9 0.9 0.00 0.07 0.00 84 1013.5
20260505083958 57 38 0.9 0.9 0.00 0.07 0.00 85 1013.5
20260505083858 57 98 0.0 0.9 0.00 0.07 0.00 86 1013.5
20260505083758 57 81 0.0 0.9 0.00 0.07 0.00 85 1013.5
20260505083657 57 0 0.0 0.9 0.00 0.07 0.00 85 1013.5
20260505083558 57 73 0.0 0.9 0.00 0.07 0.00 85 1013.5
20260505083458 57 54 0.0 0.9 0.00 0.07 0.00 85 1013.5
20260505083359 57 8 0.0 0.9 0.00 0.07 0.00 85 1013.5
20260505083302 57 60 0.0 0.9 0.00 0.07 0.00 85 1013.5
20260505083157 57 179 0.0 0.9 0.00 0.07 0.00 85 1013.5
20260505083140 57 75 0.0 0.9 0.00 0.07 0.00 85 1013.5
20260505082958 57 75 0.0 0.9 0.00 0.07 0.00 85 1013.5
20260505082858 57 170 0.0 0.9 0.00 0.07 0.00 85 1013.5
20260505082758 57 0 0.0 0.9 0.00 0.07 0.00 85 1013.5
20260505082658 57 174 0.9 1.7 0.00 0.07 0.00 85 1013.5
20260505082557 57 98 0.9 1.7 0.00 0.07 0.00 85 1013.5
20260505082458 57 88 0.9 1.7 0.00 0.07 0.00 85 1013.5
20260505082258 57 0 0.9 1.7 0.00 0.07 0.00 85 1013.4
20260505082158 57 100 0.9 1.7 0.00 0.07 0.00 85 1013.4
20260505082058 58 170 0.9 1.7 0.00 0.07 0.00 84 1013.4
20260505081958 58 0 0.9 1.7 0.00 0.07 0.00 84 1013.4
20260505081859 58 65 0.9 1.7 0.00 0.07 0.00 84 1013.4
20260505081758 58 105 0.9 1.7 0.00 0.07 0.00 84 1013.4
20260505081658 58 85 0.9 1.7 0.00 0.07 0.00 84 1013.4
20260505081558 58 34 0.9 1.7 0.00 0.07 0.00 84 1013.4
20260505081458 58 50 0.9 1.7 0.00 0.07 0.00 84 1013.4
20260505081358 58 56 0.9 1.7 0.00 0.07 0.00 84 1013.4
20260505081259 58 81 0.9 1.7 0.00 0.07 0.00 84 1013.4
20260505081158 58 21 0.9 1.7 0.00 0.07 0.00 84 1013.4
20260505081058 58 17 0.9 1.7 0.00 0.07 0.00 84 1013.4
20260505080958 58 78 0.9 1.7 0.00 0.07 0.00 84 1013.4
20260505080859 58 85 0.9 1.7 0.00 0.07 0.00 83 1013.4
20260505080758 58 290 0.9 1.7 0.00 0.07 0.00 83 1013.4
20260505080658 58 49 0.9 1.7 0.00 0.07 0.00 83 1013.4
20260505080557 58 59 0.9 1.7 0.00 0.07 0.00 83 1013.4
20260505080455 58 31 0.9 1.7 0.00 0.07 0.00 83 1013.4
20260505080349 58 0 0.9 1.7 0.00 0.07 0.00 83 1013.3
20260505080250 58 56 0.9 1.7 0.00 0.07 0.00 83 1013.3
20260505080149 58 69 0.9 1.7 0.00 0.07 0.00 83 1013.3
20260505080049 58 89 0.9 1.7 0.00 0.07 0.00 83 1013.3
20260505075950 58 30 0.9 1.7 0.00 0.07 0.00 83 1013.3
20260505075849 58 81 0.9 1.7 0.00 0.07 0.00 83 1013.3
20260505075749 58 48 0.9 1.7 0.00 0.07 0.00 83 1013.3
20260505075649 58 99 0.9 1.7 0.00 0.07 0.00 83 1013.3
20260505075549 58 19 0.9 1.7 0.00 0.07 0.00 83 1013.3
20260505075449 58 53 0.9 1.7 0.00 0.07 0.00 83 1013.3
20260505075349 58 39 0.9 1.7 0.00 0.07 0.00 83 1013.3
20260505075250 58 41 0.9 1.7 0.00 0.07 0.00 83 1013.3
20260505075149 58 15 0.9 1.7 0.00 0.07 0.00 83 1013.3
20260505075049 58 57 0.9 1.7 0.00 0.07 0.00 83 1013.3
20260505074948 58 56 0.9 1.7 0.00 0.07 0.00 83 1013.3
20260505074849 58 56 0.9 1.7 0.00 0.07 0.00 82 1013.3
20260505074749 59 95 0.9 1.7 0.00 0.07 0.00 82 1013.3
20260505074649 59 69 0.9 1.7 0.00 0.07 0.00 82 1013.3
20260505074549 59 0 0.9 1.7 0.00 0.07 0.00 82 1013.3
20260505074449 59 0 0.9 1.7 0.00 0.07 0.00 82 1013.2
20260505074348 59 157 0.9 1.7 0.00 0.07 0.00 82 1013.2
20260505074249 59 67 0.9 1.7 0.00 0.07 0.00 81 1013.2
20260505074149 59 0 0.9 1.7 0.00 0.07 0.00 81 1013.2
20260505074047 59 105 0.9 1.7 0.00 0.07 0.00 81 1013.1
20260505073948 59 91 0.9 1.7 0.00 0.07 0.00 81 1013.1
20260505073847 59 156 0.9 1.7 0.00 0.07 0.00 82 1013.1
20260505073747 59 11 0.9 1.7 0.00 0.07 0.00 81 1013.1
20260505073647 59 83 0.9 1.7 0.00 0.07 0.00 80 1013.1
20260505073547 59 77 0.9 1.7 0.00 0.07 0.00 80 1013.1
20260505073446 59 30 0.9 1.7 0.00 0.07 0.00 80 1013.0
20260505073346 59 91 0.9 1.7 0.00 0.07 0.00 80 1013.0
20260505073241 59 133 0.9 1.7 0.00 0.07 0.00 80 1013.0
20260505073141 59 60 0.9 1.7 0.00 0.07 0.00 80 1013.0
20260505073041 59 126 0.9 1.7 0.00 0.07 0.00 80 1013.0
20260505072942 59 105 0.9 2.6 0.00 0.07 0.00 80 1013.0
20260505072842 59 113 0.9 2.6 0.00 0.07 0.00 80 1013.0
20260505072742 59 82 0.9 2.6 0.00 0.07 0.00 80 1013.0
20260505072642 59 0 0.9 2.6 0.00 0.07 0.00 80 1013.0
20260505072539 59 193 0.9 2.6 0.00 0.07 0.00 80 1012.9
20260505072439 59 101 0.9 2.6 0.00 0.07 0.00 80 1012.9
20260505072339 59 97 0.9 2.6 0.00 0.07 0.00 80 1012.9
20260505072239 59 162 0.9 2.6 0.00 0.07 0.00 79 1012.9
20260505072136 59 0 0.9 2.6 0.00 0.07 0.00 79 1012.9
20260505072036 59 90 0.9 2.6 0.00 0.07 0.00 79 1012.9
20260505071936 59 247 0.9 2.6 0.00 0.07 0.00 80 1012.9
20260505071836 59 114 0.9 1.7 0.00 0.07 0.00 80 1012.8
20260505071736 59 82 0.9 1.7 0.00 0.07 0.00 80 1012.8
20260505071636 59 10 0.9 1.7 0.00 0.07 0.00 80 1012.8
20260505071536 59 173 0.9 1.7 0.00 0.07 0.00 80 1012.8
20260505071437 59 134 0.9 1.7 0.00 0.07 0.00 79 1012.8
20260505071336 59 84 0.9 1.7 0.00 0.07 0.00 79 1012.8
20260505071236 59 275 0.9 1.7 0.00 0.07 0.00 79 1012.8
20260505071137 59 89 0.9 1.7 0.00 0.07 0.00 79 1012.8
20260505071037 59 5 0.9 1.7 0.00 0.07 0.00 79 1012.8
20260505070937 60 163 0.9 1.7 0.00 0.07 0.00 79 1012.8
20260505070837 60 23 0.9 1.7 0.00 0.07 0.00 79 1012.7
20260505070736 60 97 0.9 1.7 0.00 0.07 0.00 79 1012.7
20260505070643 60 278 0.9 1.7 0.00 0.07 0.00 79 1012.7
20260505070633 60 0 0.9 1.7 0.00 0.07 0.00 79 1012.7
20260505070436 60 80 0.9 1.7 0.00 0.07 0.00 79 1012.7
20260505070336 60 87 0.9 1.7 0.00 0.07 0.00 80 1012.7
20260505070236 60 12 0.9 1.7 0.00 0.07 0.00 80 1012.7
20260505070137 60 300 0.9 1.7 0.00 0.07 0.00 80 1012.7
20260505070036 60 0 0.9 1.7 0.00 0.07 0.00 80 1012.7
20260505065936 60 58 0.9 1.7 0.00 0.07 0.07 80 1012.7
20260505065837 60 167 0.9 1.7 0.00 0.07 0.07 80 1012.7
20260505065737 60 223 0.9 1.7 0.00 0.07 0.07 81 1012.7
20260505065643 60 165 0.9 1.7 0.00 0.07 0.07 81 1012.7
20260505065633 59 356 0.0 1.7 0.00 0.07 0.07 81 1012.7
20260505065437 59 47 0.0 1.7 0.00 0.07 0.07 81 1012.7
20260505065336 59 105 0.0 1.7 0.00 0.07 0.07 82 1012.6
20260505065236 59 2 0.0 1.7 0.00 0.07 0.07 81 1012.6
20260505065136 59 288 0.0 1.7 0.00 0.07 0.07 81 1012.6
20260505065036 59 0 0.0 1.7 0.00 0.07 0.07 82 1012.6
20260505064936 59 93 0.0 1.7 0.00 0.07 0.07 82 1012.6
20260505064835 59 84 0.0 1.7 0.00 0.07 0.07 82 1012.6
20260505064733 59 134 0.0 1.7 0.00 0.07 0.07 82 1012.5
20260505064633 59 66 0.0 1.7 0.00 0.07 0.07 82 1012.5
20260505064534 59 235 0.0 1.7 0.00 0.07 0.07 82 1012.5
20260505064434 59 266 0.0 1.7 0.00 0.07 0.07 82 1012.5
20260505064233 59 231 0.0 1.7 0.00 0.07 0.07 83 1012.5
20260505064133 59 100 0.0 1.7 0.00 0.07 0.07 83 1012.4
20260505064031 59 101 0.0 1.7 0.00 0.07 0.07 83 1012.4
20260505063931 59 173 0.0 1.7 0.00 0.07 0.07 83 1012.4
20260505063831 59 182 0.0 1.7 0.00 0.07 0.07 83 1012.4
20260505063731 59 181 0.0 1.7 0.00 0.07 0.07 83 1012.4
20260505063631 59 169 0.0 1.7 0.00 0.07 0.07 83 1012.3
20260505063528 59 163 0.0 1.7 0.00 0.07 0.07 83 1012.3
20260505063428 59 106 0.0 1.7 0.00 0.07 0.07 83 1012.3
20260505063327 60 87 0.0 1.7 0.00 0.07 0.07 83 1012.3
20260505063227 60 86 0.0 1.7 0.00 0.07 0.07 83 1012.3
20260505063128 60 0 0.0 0.9 0.00 0.07 0.07 83 1012.3
20260505063028 60 114 0.0 0.9 0.00 0.07 0.07 83 1012.3
20260505062925 60 0 0.0 0.9 0.00 0.07 0.07 82 1012.3
20260505062825 60 0 0.0 0.9 0.00 0.07 0.07 82 1012.3
20260505062724 60 98 0.0 0.9 0.00 0.07 0.07 82 1012.3
20260505062625 60 172 0.0 0.9 0.00 0.07 0.07 82 1012.2
20260505062527 60 129 0.0 0.9 0.00 0.07 0.07 82 1012.2
20260505062425 60 0 0.0 0.9 0.00 0.07 0.07 82 1012.2
20260505062349 60 161 0.0 1.7 0.00 0.07 0.07 81 1012.2
20260505062222 60 0 0.0 1.7 0.00 0.07 0.07 81 1012.2
20260505062134 60 0 0.0 1.7 0.00 0.07 0.07 81 1012.2
20260505062124 60 104 0.0 1.7 0.00 0.07 0.07 81 1012.1
20260505061922 60 0 0.0 1.7 0.00 0.07 0.07 81 1012.1
20260505061822 60 138 0.9 1.7 0.00 0.07 0.07 81 1012.1
20260505061722 60 96 0.9 1.7 0.00 0.07 0.07 81 1012.1
20260505061622 60 164 0.9 1.7 0.00 0.07 0.07 81 1012.0
20260505061525 60 120 0.9 1.7 0.00 0.07 0.07 81 1012.0
20260505061422 60 104 0.9 1.7 0.00 0.07 0.07 81 1012.0
20260505061323 61 177 0.9 1.7 0.00 0.07 0.07 80 1012.1
20260505061222 61 0 0.9 1.7 0.00 0.07 0.07 80 1012.1
20260505061122 61 105 0.9 1.7 0.00 0.07 0.07 80 1012.1
20260505061024 61 103 0.9 1.7 0.00 0.07 0.07 80 1012.0
20260505060921 61 121 0.9 1.7 0.00 0.07 0.07 80 1012.0
20260505060822 61 104 0.9 1.7 0.00 0.07 0.07 80 1012.0
20260505060722 61 119 0.9 1.7 0.00 0.07 0.07 80 1012.0
20260505060622 61 101 0.9 1.7 0.00 0.07 0.07 79 1012.0
20260505060524 61 165 0.9 1.7 0.00 0.07 0.07 79 1011.9
20260505060423 61 96 0.9 1.7 0.00 0.07 0.07 79 1011.9
20260505060322 61 110 0.9 1.7 0.00 0.07 0.07 79 1011.9
20260505060222 61 165 0.9 1.7 0.00 0.07 0.07 79 1011.9
20260505060122 61 126 0.9 1.7 0.00 0.07 0.07 79 1011.9
20260505060025 61 92 0.9 1.7 0.00 0.07 0.07 79 1012.0
20260505055922 61 106 0.9 1.7 0.00 0.07 0.07 79 1012.0
20260505055822 61 119 0.9 1.7 0.00 0.07 0.07 79 1012.0
20260505055722 62 137 0.9 1.7 0.00 0.07 0.07 78 1012.0
20260505055622 62 162 0.9 1.7 0.00 0.07 0.07 78 1012.0
20260505055524 62 90 0.9 1.7 0.00 0.07 0.07 78 1012.0
20260505055422 62 186 0.9 1.7 0.00 0.07 0.07 78 1012.0
20260505055322 62 129 0.9 1.7 0.00 0.07 0.07 78 1012.0
20260505055222 62 121 0.9 1.7 0.00 0.07 0.07 78 1012.0
20260505055132 62 89 0.9 1.7 0.00 0.07 0.07 78 1012.0
20260505055124 62 157 0.9 1.7 0.00 0.07 0.07 77 1012.0
20260505054922 62 0 0.0 1.7 0.00 0.07 0.07 77 1011.9
20260505054822 62 0 0.0 1.7 0.00 0.07 0.07 77 1011.9
20260505054723 62 65 0.9 1.7 0.00 0.07 0.07 78 1011.9
20260505054620 62 165 0.9 1.7 0.00 0.07 0.07 77 1011.9
20260505054524 62 88 0.0 1.7 0.00 0.07 0.07 77 1011.9
20260505054419 62 0 0.0 1.7 0.00 0.07 0.07 77 1011.9
20260505054320 62 17 0.9 1.7 0.00 0.07 0.07 76 1011.9
20260505054220 63 8 0.9 1.7 0.00 0.07 0.07 77 1011.9
20260505054120 63 76 0.9 1.7 0.00 0.07 0.07 77 1011.9
20260505054023 63 4 0.9 1.7 0.00 0.07 0.07 76 1011.9
20260505053917 63 18 0.9 1.7 0.00 0.07 0.07 76 1011.9
20260505053817 63 15 0.9 1.7 0.00 0.07 0.07 76 1011.9
20260505053717 63 0 0.9 1.7 0.00 0.07 0.07 76 1011.8
20260505053629 63 27 0.9 1.7 0.00 0.07 0.07 76 1011.8
20260505053619 63 166 0.9 1.7 0.00 0.07 0.07 76 1011.8
20260505053415 63 77 0.9 1.7 0.00 0.07 0.07 76 1011.8
20260505053314 63 81 0.9 1.7 0.00 0.07 0.07 75 1011.8
20260505053214 63 0 0.9 1.7 0.00 0.07 0.07 75 1011.8
20260505053130 63 0 0.9 1.7 0.00 0.07 0.07 75 1011.8
20260505053118 64 124 0.9 1.7 0.00 0.07 0.07 75 1011.8
20260505052910 64 86 0.9 1.7 0.00 0.07 0.07 75 1011.8
20260505052808 64 159 0.9 1.7 0.00 0.07 0.07 74 1011.8
20260505052708 64 59 0.9 2.6 0.00 0.07 0.07 74 1011.8
20260505052607 64 95 0.9 2.6 0.00 0.07 0.07 74 1011.8
20260505052507 64 97 0.9 2.6 0.00 0.07 0.07 74 1011.8
20260505052408 64 80 0.9 2.6 0.00 0.07 0.07 74 1011.8
20260505052308 64 0 0.9 2.6 0.00 0.07 0.07 73 1011.8
20260505052207 64 71 0.9 2.6 0.00 0.07 0.07 74 1011.8
20260505052124 64 20 0.9 2.6 0.00 0.07 0.07 74 1011.8
20260505052007 64 68 0.9 2.6 0.00 0.07 0.07 74 1011.8
20260505051902 64 0 0.9 2.6 0.00 0.07 0.07 73 1011.7
20260505051801 64 83 0.9 2.6 0.00 0.07 0.07 73 1011.7
20260505051702 64 353 0.9 2.6 0.00 0.07 0.07 73 1011.7
20260505051559 64 76 0.9 1.7 0.00 0.07 0.07 73 1011.7
20260505051459 64 97 0.9 1.7 0.00 0.07 0.07 73 1011.7
20260505051359 64 0 0.9 1.7 0.00 0.07 0.07 73 1011.7
20260505051259 64 91 0.9 1.7 0.00 0.07 0.07 72 1011.7
20260505051201 64 297 0.9 1.7 0.00 0.07 0.07 72 1011.6
20260505051059 64 288 0.9 1.7 0.00 0.07 0.07 72 1011.6
20260505050959 64 1 0.9 1.7 0.00 0.07 0.07 72 1011.6
20260505050859 64 321 0.9 1.7 0.00 0.07 0.07 72 1011.6
20260505050759 65 315 0.9 1.7 0.00 0.07 0.07 72 1011.6
20260505050702 65 280 0.9 1.7 0.00 0.07 0.07 72 1011.6
20260505050600 65 351 0.9 1.7 0.00 0.07 0.07 72 1011.6
20260505050459 65 344 0.9 1.7 0.00 0.07 0.07 72 1011.6
20260505050359 65 322 0.9 1.7 0.00 0.07 0.07 72 1011.6
20260505050300 65 28 0.9 1.7 0.00 0.07 0.07 72 1011.6
20260505050205 65 357 0.0 0.9 0.00 0.07 0.07 72 1011.6
20260505050124 65 85 0.0 0.9 0.00 0.07 0.07 72 1011.6
20260505041743 67 330 0.9 3.5 0.00 0.07 0.07 69 1011.1
20260505041642 68 319 0.9 3.5 0.00 0.07 0.07 70 1011.0
20260505041542 68 2 0.0 1.7 0.00 0.07 0.07 70 1011.0
20260505041442 68 323 0.0 1.7 0.00 0.07 0.07 70 1011.0
20260505041342 68 80 0.0 1.7 0.00 0.07 0.07 70 1011.0
20260505041243 68 321 0.0 1.7 0.00 0.07 0.07 70 1011.0
20260505041142 68 0 0.0 1.7 0.00 0.07 0.07 71 1010.9
20260505041041 68 189 0.0 1.7 0.00 0.07 0.07 70 1010.9
20260505040942 68 93 0.0 1.7 0.00 0.07 0.07 70 1010.9
20260505040842 68 355 0.0 1.7 0.00 0.07 0.07 70 1010.9
20260505040741 68 0 0.0 1.7 0.00 0.07 0.07 71 1010.9
20260505040639 68 89 0.0 1.7 0.00 0.07 0.07 71 1010.9
20260505040539 68 222 0.0 1.7 0.00 0.07 0.07 71 1010.9
20260505040440 68 0 0.0 1.7 0.00 0.07 0.07 70 1010.8
20260505040339 68 2 0.9 1.7 0.00 0.07 0.07 71 1010.8
20260505040240 68 333 0.9 1.7 0.00 0.07 0.07 71 1010.8
20260505040139 68 0 0.9 1.7 0.00 0.07 0.07 70 1010.8
20260505040040 68 319 0.0 1.7 0.00 0.07 0.07 70 1010.8
20260505035939 68 0 0.0 1.7 0.00 0.07 0.07 70 1010.8
20260505035840 68 285 0.0 1.7 0.00 0.07 0.07 70 1010.7
20260505035742 68 0 0.0 1.7 0.00 0.07 0.07 70 1010.7
20260505035639 69 259 0.0 1.7 0.00 0.07 0.07 71 1010.7
20260505035539 69 351 0.0 1.7 0.00 0.07 0.07 71 1010.7
20260505035440 69 198 0.0 1.7 0.00 0.07 0.07 71 1010.7
20260505035339 69 117 0.0 2.6 0.00 0.07 0.07 71 1010.6
20260505035239 69 220 0.0 2.6 0.00 0.07 0.07 71 1010.6
20260505035144 69 0 0.0 2.6 0.00 0.07 0.07 71 1010.6
20260505035039 69 0 0.0 2.6 0.00 0.07 0.07 71 1010.6
20260505034940 69 154 0.0 2.6 0.00 0.07 0.07 71 1010.6
20260505034840 69 273 0.0 2.6 0.00 0.07 0.07 71 1010.6
20260505034741 69 0 0.9 2.6 0.00 0.07 0.07 70 1010.5
20260505034639 69 0 0.9 2.6 0.00 0.07 0.07 71 1010.5
20260505034540 69 0 0.9 2.6 0.00 0.07 0.07 71 1010.5
20260505034440 69 0 0.9 2.6 0.00 0.07 0.07 70 1010.5
20260505034336 69 238 0.9 1.7 0.00 0.07 0.07 70 1010.4
20260505034238 69 155 0.9 1.7 0.00 0.07 0.07 70 1010.4
20260505034137 69 0 0.9 1.7 0.00 0.07 0.07 70 1010.4
20260505034034 69 147 0.9 1.7 0.00 0.07 0.07 70 1010.3
20260505033934 69 246 0.9 1.7 0.00 0.07 0.07 70 1010.3
20260505033833 69 313 0.9 1.7 0.00 0.07 0.07 70 1010.3
20260505033734 69 43 0.9 3.5 0.00 0.07 0.07 70 1010.3
20260505033634 69 326 0.9 3.5 0.00 0.07 0.07 70 1010.3
20260505033533 69 209 0.9 3.5 0.00 0.07 0.07 71 1010.2
20260505033434 69 0 0.9 3.5 0.00 0.07 0.07 70 1010.2
20260505033333 69 255 0.9 3.5 0.00 0.07 0.07 70 1010.2
20260505033231 69 240 0.9 3.5 0.00 0.07 0.07 70 1010.2
20260505033129 69 245 0.9 3.5 0.00 0.07 0.07 70 1010.2
20260505033119 69 286 0.9 3.5 0.00 0.07 0.07 70 1010.2
20260505032926 69 243 0.9 3.5 0.00 0.07 0.07 70 1010.2
20260505032826 69 278 0.9 3.5 0.00 0.07 0.07 70 1010.2
20260505032726 69 207 0.9 2.6 0.00 0.07 0.07 70 1010.1
20260505032627 69 191 0.9 2.6 0.00 0.07 0.07 70 1010.1
20260505032617 70 290 0.9 2.6 0.00 0.07 0.07 70 1010.1
20260505032421 70 126 0.9 2.6 0.00 0.07 0.07 70 1010.1
20260505032320 70 198 0.9 2.6 0.00 0.07 0.07 70 1010.1
20260505032221 70 182 0.9 2.6 0.00 0.07 0.07 70 1010.0
20260505032120 70 172 0.9 2.6 0.00 0.07 0.07 70 1010.0
20260505032020 70 0 0.9 2.6 0.00 0.07 0.07 70 1010.0
20260505031920 70 229 0.9 2.6 0.00 0.07 0.07 70 1010.0
20260505031820 70 197 0.9 2.6 0.00 0.07 0.07 70 1010.0
20260505031720 70 212 0.9 2.6 0.00 0.07 0.07 70 1010.0
20260505031629 70 206 0.9 2.6 0.00 0.07 0.07 69 1010.0
20260505031621 70 293 0.0 2.6 0.00 0.07 0.07 69 1010.0
20260505031420 70 253 0.0 2.6 0.00 0.07 0.07 69 1010.0
20260505031320 70 259 0.9 2.6 0.00 0.07 0.07 69 1010.0
20260505031220 70 0 0.9 2.6 0.00 0.07 0.07 69 1010.0
20260505031120 70 0 0.9 2.6 0.00 0.07 0.07 69 1009.9
20260505031020 70 0 0.9 2.6 0.00 0.07 0.07 69 1009.9
20260505030920 70 0 0.9 2.6 0.00 0.07 0.07 69 1009.9
20260505030822 70 196 0.9 2.6 0.00 0.07 0.07 69 1009.9
20260505030721 70 216 0.9 1.7 0.00 0.07 0.07 69 1009.9
20260505030621 70 241 0.9 2.6 0.00 0.07 0.07 69 1009.9
20260505030520 70 191 0.9 2.6 0.00 0.07 0.07 69 1009.9
20260505030421 70 0 0.9 2.6 0.00 0.07 0.07 69 1009.9
20260505030320 70 216 0.9 2.6 0.00 0.07 0.07 68 1009.9
20260505030221 70 217 0.0 2.6 0.00 0.07 0.07 68 1009.9
20260505030120 71 133 0.0 2.6 0.00 0.07 0.07 68 1009.9
20260505030021 71 0 0.9 2.6 0.00 0.07 0.07 68 1009.9
20260505025922 71 190 0.9 2.6 0.00 0.07 0.07 68 1009.9
20260505025821 71 298 0.0 2.6 0.00 0.07 0.07 68 1009.9
20260505025720 71 294 0.0 2.6 0.00 0.07 0.07 68 1009.8
20260505025621 71 157 0.0 2.6 0.00 0.07 0.07 68 1009.8
20260505025521 71 295 0.9 3.5 0.00 0.07 0.07 68 1009.8
20260505025421 71 0 0.9 3.5 0.00 0.07 0.07 68 1009.8
20260505025320 71 184 0.9 3.5 0.00 0.07 0.07 68 1009.8
20260505025221 71 229 0.9 3.5 0.00 0.07 0.07 68 1009.8
20260505025121 71 190 0.9 3.5 0.00 0.07 0.07 68 1009.8
20260505025020 71 274 0.9 3.5 0.00 0.07 0.07 68 1009.8
20260505024920 71 291 0.9 3.5 0.00 0.07 0.07 68 1009.8
20260505024821 71 0 0.9 3.5 0.00 0.07 0.07 67 1009.7
20260505024721 71 171 0.9 3.5 0.00 0.07 0.07 67 1009.7
20260505024625 71 267 0.9 3.5 0.00 0.07 0.07 67 1009.7
20260505024616 71 169 0.9 3.5 0.00 0.07 0.07 67 1009.7
20260505024417 71 263 0.9 3.5 0.00 0.07 0.07 67 1009.7
20260505024317 71 267 0.9 3.5 0.00 0.07 0.07 67 1009.7
20260505024217 71 173 0.9 3.5 0.00 0.07 0.07 67 1009.7
20260505024116 71 272 0.9 3.5 0.00 0.07 0.07 67 1009.7
20260505024017 71 213 0.9 3.5 0.00 0.07 0.07 67 1009.7
20260505023915 71 206 0.9 3.5 0.00 0.07 0.07 67 1009.7
20260505023814 71 183 0.9 3.5 0.00 0.07 0.07 67 1009.7
20260505023714 71 281 0.9 3.5 0.00 0.07 0.07 67 1009.7
20260505023610 71 253 0.9 3.5 0.00 0.07 0.07 67 1009.7
20260505023515 71 191 0.9 3.5 0.00 0.07 0.07 67 1009.7
20260505023411 71 254 0.9 2.6 0.00 0.07 0.07 67 1009.7
20260505023312 71 193 0.9 3.5 0.00 0.07 0.07 67 1009.7
20260505023210 71 269 0.9 3.5 0.00 0.07 0.07 67 1009.7
20260505023111 71 0 0.9 3.5 0.00 0.07 0.07 66 1009.7
20260505023015 71 236 0.9 3.5 0.00 0.07 0.07 67 1009.7
20260505022908 71 186 0.9 3.5 0.00 0.07 0.07 66 1009.7
20260505022808 71 175 0.9 3.5 0.00 0.07 0.07 66 1009.7
20260505022709 72 199 0.9 3.5 0.00 0.07 0.07 66 1009.7
20260505022609 72 208 0.9 3.5 0.00 0.07 0.07 66 1009.7
20260505022514 72 160 0.9 3.5 0.00 0.07 0.07 66 1009.7
20260505022408 72 258 0.9 3.5 0.00 0.07 0.07 66 1009.7
20260505022309 72 177 0.9 3.5 0.00 0.07 0.07 66 1009.7
20260505022208 72 246 0.9 3.5 0.00 0.07 0.07 66 1009.7
20260505022108 72 0 0.9 3.5 0.00 0.07 0.07 66 1009.7
20260505022014 72 194 0.9 3.5 0.00 0.07 0.07 66 1009.7
20260505021908 72 286 0.9 3.5 0.00 0.07 0.07 66 1009.7
20260505021808 72 222 0.9 3.5 0.00 0.07 0.07 65 1009.7
20260505021709 72 301 0.9 3.5 0.00 0.07 0.07 65 1009.7
20260505021624 72 302 0.9 3.5 0.00 0.07 0.07 65 1009.7
20260505021614 72 185 0.9 3.5 0.00 0.07 0.07 65 1009.7
20260505021408 72 199 0.9 4.3 0.00 0.07 0.07 65 1009.7
20260505021308 72 0 1.7 4.3 0.00 0.07 0.07 65 1009.7
20260505021209 72 190 1.7 4.3 0.00 0.07 0.07 65 1009.7
20260505021108 72 260 1.7 4.3 0.00 0.07 0.07 65 1009.7
20260505020909 72 270 0.9 4.3 0.00 0.07 0.07 65 1009.7
20260505020808 72 188 0.9 4.3 0.00 0.07 0.07 65 1009.7
20260505020709 72 190 0.9 4.3 0.00 0.07 0.07 65 1009.7
20260505020608 72 187 0.9 4.3 0.00 0.07 0.07 65 1009.7
20260505020514 73 231 0.9 4.3 0.00 0.07 0.07 64 1009.7
20260505020408 73 191 0.9 4.3 0.00 0.07 0.07 65 1009.7
20260505020308 73 162 0.9 2.6 0.00 0.07 0.07 65 1009.7
20260505020208 73 208 0.9 2.6 0.00 0.07 0.07 64 1009.7
20260505020108 73 253 0.9 2.6 0.00 0.07 0.07 64 1009.7
20260505020014 73 273 0.9 2.6 0.00 0.07 0.07 64 1009.7
20260505015908 73 297 0.9 2.6 0.00 0.07 0.07 64 1009.7
20260505015808 73 140 0.9 2.6 0.00 0.07 0.07 64 1009.7
20260505015708 73 0 0.9 2.6 0.00 0.07 0.07 64 1009.7
20260505015609 73 218 0.9 2.6 0.00 0.07 0.07 64 1009.7
20260505015408 73 299 0.9 2.6 0.00 0.07 0.07 64 1009.7
20260505015308 73 211 0.9 2.6 0.00 0.07 0.07 64 1009.7
20260505015209 73 187 0.9 2.6 0.00 0.07 0.07 64 1009.7
20260505015106 73 182 0.9 2.6 0.00 0.07 0.07 64 1009.7
20260505015012 73 192 0.9 2.6 0.00 0.07 0.07 64 1009.7
20260505014904 73 181 0.9 2.6 0.00 0.07 0.07 64 1009.7
20260505014804 73 30 0.9 2.6 0.00 0.07 0.07 63 1009.7
20260505014704 73 0 0.9 2.6 0.00 0.07 0.07 63 1009.7
20260505014603 73 282 0.9 2.6 0.00 0.07 0.07 63 1009.7
20260505014459 73 249 0.9 2.6 0.00 0.07 0.07 63 1009.7
20260505014400 73 281 0.9 2.6 0.00 0.07 0.07 63 1009.7
20260505014257 73 192 0.9 3.5 0.00 0.07 0.07 63 1009.7
20260505014157 73 244 0.9 3.5 0.00 0.07 0.07 63 1009.7
20260505014057 73 152 0.9 3.5 0.00 0.07 0.07 63 1009.7
20260505013954 73 44 0.9 3.5 0.00 0.07 0.07 63 1009.7
20260505013854 73 183 0.9 3.5 0.00 0.07 0.07 62 1009.8
20260505013754 73 249 0.9 3.5 0.00 0.07 0.07 63 1009.8
20260505013654 74 207 0.9 3.5 0.00 0.07 0.07 63 1009.7
20260505013550 74 16 0.9 3.5 0.00 0.07 0.07 62 1009.8
20260505013451 74 272 0.9 3.5 0.00 0.07 0.07 62 1009.8
20260505013351 74 260 0.9 3.5 0.00 0.07 0.07 62 1009.8
20260505013251 74 219 0.9 3.5 0.00 0.07 0.07 61 1009.8
20260505013151 74 274 0.9 3.5 0.00 0.07 0.07 61 1009.8
20260505013050 74 118 0.9 3.5 0.00 0.07 0.07 61 1009.9
20260505012951 74 0 0.9 3.5 0.00 0.07 0.07 62 1009.8
20260505012851 74 224 0.9 3.5 0.00 0.07 0.07 61 1009.8
20260505012748 74 283 0.9 3.5 0.00 0.07 0.07 61 1009.8
20260505012650 74 191 0.9 3.5 0.00 0.07 0.07 61 1009.8
20260505012548 75 258 0.9 3.5 0.00 0.07 0.07 60 1009.9
20260505012448 75 339 0.9 3.5 0.00 0.07 0.07 60 1009.9
20260505012348 75 181 0.9 3.5 0.00 0.07 0.07 60 1009.9
20260505012249 75 67 0.9 3.5 0.00 0.07 0.07 60 1009.9
20260505012149 75 316 0.9 3.5 0.00 0.07 0.07 60 1009.9
20260505012047 75 216 0.9 3.5 0.01 0.07 0.07 59 1009.9
20260505011948 75 205 0.9 3.5 0.02 0.07 0.07 60 1009.9
20260505011847 75 233 0.9 3.5 0.04 0.07 0.07 60 1009.9
20260505011746 75 0 0.9 3.5 0.04 0.07 0.07 60 1009.9
20260505011651 75 185 0.9 3.5 0.05 0.07 0.07 59 1009.9
20260505011546 76 230 0.9 3.5 0.05 0.07 0.07 59 1009.9
20260505011447 76 190 0.9 3.5 0.05 0.07 0.07 58 1010.0
20260505011347 76 0 0.9 2.6 0.05 0.07 0.07 58 1010.0
20260505011247 76 269 0.9 2.6 0.05 0.07 0.07 58 1010.0
20260505011149 76 239 0.9 2.6 0.06 0.07 0.07 57 1010.0
20260505011046 76 211 0.9 2.6 0.07 0.07 0.07 57 1010.0
20260505010946 76 236 0.9 2.6 0.07 0.07 0.07 58 1010.0
20260505010847 76 184 0.9 2.6 0.07 0.07 0.07 58 1010.0
20260505010747 75 242 0.9 2.6 0.07 0.07 0.07 58 1010.0
20260505010648 75 257 0.9 3.5 0.07 0.07 0.07 58 1010.0
20260505010546 75 355 0.9 3.5 0.07 0.07 0.07 58 1010.0
20260505010447 75 225 0.9 3.5 0.07 0.07 0.07 58 1009.9
20260505010346 75 351 0.9 3.5 0.07 0.07 0.07 59 1010.0
20260505010247 75 64 0.9 3.5 0.07 0.07 0.07 59 1010.0
20260505010149 76 218 0.9 3.5 0.07 0.07 0.07 58 1010.0
20260505010046 76 202 0.9 3.5 0.07 0.07 0.07 58 1009.9
20260505005946 76 209 0.9 3.5 0.07 0.07 0.07 58 1010.0
20260505005846 76 215 0.9 3.5 0.07 0.07 0.07 58 1009.9
20260505005746 76 274 0.9 3.5 0.07 0.07 0.07 57 1010.0
20260505005646 76 222 0.9 4.3 0.07 0.07 0.07 57 1010.0
20260505005542 76 254 0.9 4.3 0.07 0.07 0.07 57 1010.0
20260505005443 76 11 0.9 4.3 0.07 0.07 0.07 57 1010.0
20260505005342 76 0 0.9 4.3 0.07 0.07 0.07 57 1010.0
20260505005239 75 322 0.9 4.3 0.07 0.07 0.07 58 1010.1
20260505005143 75 35 0.9 4.3 0.07 0.07 0.07 58 1010.0
20260505005039 75 249 0.9 4.3 0.07 0.07 0.07 58 1010.1
20260505004940 75 258 0.9 4.3 0.07 0.07 0.07 58 1010.1
20260505004839 75 0 0.9 4.3 0.07 0.07 0.07 58 1010.1
20260505004740 75 275 0.9 4.3 0.07 0.07 0.07 58 1010.1
20260505004636 75 263 0.9 3.5 0.07 0.07 0.07 58 1010.1
20260505004610 75 270 0.9 5.2 0.07 0.07 0.07 58 1010.1
20260505004433 75 206 0.9 5.2 0.07 0.07 0.07 58 1010.2
20260505004331 75 264 0.9 5.2 0.07 0.07 0.07 58 1010.1
20260505004231 75 6 0.9 5.2 0.07 0.07 0.07 58 1010.1
20260505004131 75 250 0.9 5.2 0.07 0.07 0.07 59 1010.1
20260505004031 75 224 0.9 5.2 0.07 0.07 0.07 59 1010.1
20260505003931 75 271 0.9 5.2 0.07 0.07 0.07 59 1010.1
20260505003830 75 279 1.7 5.2 0.07 0.07 0.07 59 1010.1
20260505003728 75 226 1.7 5.2 0.07 0.07 0.07 58 1010.1
20260505003626 75 260 1.7 5.2 0.07 0.07 0.07 58 1010.2
20260505003526 75 60 1.7 5.2 0.07 0.07 0.07 58 1010.2
20260505003427 75 194 1.7 5.2 0.07 0.07 0.07 59 1010.2
20260505003341 75 321 1.7 5.2 0.07 0.07 0.07 59 1010.1
20260505003332 75 16 1.7 5.2 0.07 0.07 0.07 59 1010.2
20260505003126 75 229 1.7 6.1 0.07 0.07 0.07 59 1010.2
20260505003107 75 211 1.7 6.1 0.07 0.07 0.07 59 1010.1
20260505002927 75 181 1.7 6.1 0.07 0.07 0.07 59 1010.1
20260505002827 75 241 1.7 6.1 0.07 0.07 0.07 59 1010.1
20260505002726 75 229 1.7 6.1 0.07 0.07 0.07 59 1010.2
20260505002627 75 248 1.7 6.1 0.07 0.07 0.07 59 1010.2
20260505002526 75 229 1.7 6.1 0.07 0.07 0.07 59 1010.2
20260505002427 75 260 1.7 6.1 0.07 0.07 0.07 59 1010.2
20260505002326 75 232 1.7 6.1 0.07 0.07 0.07 59 1010.2
20260505002226 75 194 1.7 6.1 0.07 0.07 0.07 59 1010.2
20260505002126 75 250 1.7 3.5 0.07 0.07 0.07 58 1010.2
20260505002026 75 2 0.9 3.5 0.06 0.06 0.07 58 1010.2
20260505001926 75 179 1.7 3.5 0.05 0.05 0.06 58 1010.2
20260505001827 75 48 1.7 3.5 0.04 0.04 0.04 59 1010.2
20260505001726 75 279 1.7 3.5 0.03 0.03 0.03 58 1010.1
20260505001627 75 235 0.9 3.5 0.02 0.02 0.02 59 1010.2
20260505001526 74 185 1.7 3.5 0.02 0.02 0.02 59 1010.2
20260505001426 74 264 1.7 3.5 0.02 0.02 0.02 59 1010.1
20260505001326 74 216 1.7 3.5 0.02 0.02 0.02 59 1010.2
20260505001227 74 33 1.7 3.5 0.02 0.02 0.02 59 1010.1
20260505001127 74 0 0.9 3.5 0.01 0.01 0.01 59 1010.2
20260505001026 74 282 0.9 3.5 0.00 0.00 0.00 59 1010.2
20260505000926 74 211 0.9 3.5 0.00 0.00 0.00 59 1010.1
20260505000827 74 270 0.9 3.5 0.00 0.00 0.00 59 1010.1
20260505000727 74 184 0.9 6.1 0.00 0.00 0.00 59 1010.2
20260505000626 74 197 1.7 6.1 0.00 0.00 0.00 59 1010.2
20260505000526 74 182 0.9 6.1 0.00 0.00 0.00 59 1010.2
20260505000428 74 330 0.9 6.1 0.00 0.00 0.00 59 1010.2
20260505000327 74 173 1.7 6.1 0.00 0.00 0.00 59 1010.3
20260505000227 74 201 1.7 6.1 0.00 0.00 0.00 59 1010.3
20260505000127 74 358 1.7 6.1 0.00 0.00 0.00 58 1010.3
20260505000026 74 30 1.7 6.1 0.00 0.00 0.00 58 1010.3
20260504235927 74 174 1.7 6.1 0.00 0.00 0.00 59 1010.4
20260504235827 75 292 1.7 6.1 0.00 0.00 0.00 59 1010.3
20260504235726 75 180 1.7 4.3 0.00 0.00 0.00 58 1010.4
20260504235626 75 287 0.9 4.3 0.00 0.00 0.00 58 1010.4
20260504235526 75 56 0.9 4.3 0.00 0.00 0.00 57 1010.4
20260504235426 75 193 0.9 4.3 0.00 0.00 0.00 57 1010.4
20260504235327 75 269 0.9 3.5 0.00 0.00 0.00 57 1010.4
20260504235227 75 238 0.9 3.5 0.00 0.00 0.00 58 1010.4
20260504235126 75 196 0.9 3.5 0.00 0.00 0.00 57 1010.3
20260504235023 75 125 0.9 3.5 0.00 0.00 0.00 57 1010.3
20260504234923 75 251 0.9 3.5 0.00 0.00 0.00 57 1010.3
20260504234823 75 216 0.9 3.5 0.00 0.00 0.00 57 1010.3
20260504234722 74 192 0.9 3.5 0.00 0.00 0.00 56 1010.3
20260504234619 74 60 0.9 3.5 0.00 0.00 0.00 57 1010.3
20260504234520 74 301 0.9 3.5 0.00 0.00 0.00 57 1010.3
20260504234419 74 226 0.9 3.5 0.00 0.00 0.00 58 1010.3
20260504234319 74 215 1.7 3.5 0.00 0.00 0.00 58 1010.3
20260504234220 74 140 1.7 3.5 0.00 0.00 0.00 58 1010.2
20260504234120 74 33 1.7 3.5 0.00 0.00 0.00 58 1010.3
20260504234020 74 338 1.7 3.5 0.00 0.00 0.00 58 1010.3
20260504233920 74 185 1.7 4.3 0.00 0.00 0.00 58 1010.3
20260504233820 74 267 1.7 4.3 0.00 0.00 0.00 58 1010.3
20260504233720 74 344 1.7 5.2 0.00 0.00 0.00 58 1010.3
20260504233620 74 190 1.7 5.2 0.00 0.00 0.00 58 1010.3
20260504233520 74 325 1.7 5.2 0.00 0.00 0.00 58 1010.3
20260504233421 74 246 1.7 5.2 0.00 0.00 0.00 58 1010.3
20260504233320 74 176 1.7 5.2 0.00 0.00 0.00 58 1010.3
20260504233218 74 218 1.7 5.2 0.00 0.00 0.00 58 1010.4
20260504233117 74 262 1.7 5.2 0.00 0.00 0.00 58 1010.4
20260504233018 74 63 1.7 5.2 0.00 0.00 0.00 58 1010.4
20260504232916 74 254 1.7 5.2 0.00 0.00 0.00 58 1010.4
20260504232817 74 182 1.7 5.2 0.00 0.00 0.00 58 1010.4
20260504232716 74 147 1.7 5.2 0.00 0.00 0.00 57 1010.4
20260504232618 74 196 1.7 5.2 0.00 0.00 0.00 58 1010.4
20260504232517 74 190 1.7 4.3 0.00 0.00 0.00 58 1010.4
20260504232416 74 9 0.9 4.3 0.00 0.00 0.00 58 1010.4
20260504232317 74 253 1.7 4.3 0.00 0.00 0.00 58 1010.4
20260504232217 74 319 1.7 4.3 0.00 0.00 0.00 58 1010.4
20260504232117 74 299 1.7 4.3 0.00 0.00 0.00 58 1010.4
20260504232106 74 162 1.7 4.3 0.00 0.00 0.00 58 1010.4
20260504231918 74 219 1.7 4.3 0.00 0.00 0.00 58 1010.4
20260504231818 74 248 1.7 4.3 0.00 0.00 0.00 57 1010.4
20260504231717 74 239 1.7 4.3 0.00 0.00 0.00 57 1010.4
20260504231617 74 207 1.7 4.3 0.00 0.00 0.00 58 1010.5
20260504231518 74 181 0.9 3.5 0.00 0.00 0.00 58 1010.5
20260504231418 74 203 0.9 3.5 0.00 0.00 0.00 57 1010.5
20260504231317 74 213 0.9 3.5 0.00 0.00 0.00 57 1010.5
20260504231217 74 246 0.9 3.5 0.00 0.00 0.00 57 1010.5
20260504231117 74 272 0.9 3.5 0.00 0.00 0.00 57 1010.6
20260504231017 74 190 0.9 3.5 0.00 0.00 0.00 57 1010.5
20260504230917 74 144 0.9 3.5 0.00 0.00 0.00 57 1010.5
20260504230817 74 39 0.9 3.5 0.00 0.00 0.00 57 1010.6
20260504230718 74 30 0.9 5.2 0.00 0.00 0.00 57 1010.6
20260504230617 74 339 1.7 5.2 0.00 0.00 0.00 57 1010.6
20260504230517 74 0 1.7 5.2 0.00 0.00 0.00 57 1010.6
20260504230418 74 301 1.7 5.2 0.00 0.00 0.00 56 1010.6
20260504230317 74 253 1.7 5.2 0.00 0.00 0.00 58 1010.6
20260504230217 74 51 1.7 5.2 0.00 0.00 0.00 58 1010.6
20260504230117 74 183 1.7 5.2 0.00 0.00 0.00 57 1010.6
20260504230018 74 245 1.7 5.2 0.00 0.00 0.00 57 1010.6
20260504225917 74 204 1.7 5.2 0.00 0.00 0.00 57 1010.7
20260504225818 74 198 1.7 5.2 0.00 0.00 0.00 57 1010.7
20260504225718 74 255 1.7 5.2 0.00 0.00 0.00 56 1010.7
20260504225618 74 45 1.7 3.5 0.00 0.00 0.00 56 1010.7
20260504225518 74 165 1.7 3.5 0.00 0.00 0.00 56 1010.7
20260504225418 74 204 0.9 3.5 0.00 0.00 0.00 56 1010.7
20260504225318 74 262 0.9 3.5 0.00 0.00 0.00 56 1010.8
20260504225217 74 177 0.9 3.5 0.00 0.00 0.00 56 1010.8
20260504225118 74 284 0.9 3.5 0.00 0.00 0.00 55 1010.8
20260504225017 74 97 0.9 2.6 0.00 0.00 0.00 55 1010.8
20260504224917 74 259 0.9 2.6 0.00 0.00 0.00 56 1010.8
20260504224817 74 172 0.9 2.6 0.00 0.00 0.00 55 1010.8
20260504224718 74 200 0.9 2.6 0.00 0.00 0.00 55 1010.8
20260504224618 74 174 0.9 3.5 0.00 0.00 0.00 55 1010.8
20260504224517 74 339 0.9 3.5 0.00 0.00 0.00 56 1010.8
20260504224416 74 45 0.9 3.5 0.00 0.00 0.00 56 1010.8
20260504224317 74 308 0.9 3.5 0.00 0.00 0.00 55 1010.8
20260504224217 74 237 0.9 3.5 0.00 0.00 0.00 56 1010.8
20260504224117 74 182 0.9 3.5 0.00 0.00 0.00 55 1010.8
20260504224016 74 86 0.9 3.5 0.00 0.00 0.00 56 1010.9
20260504223916 74 204 0.9 3.5 0.00 0.00 0.00 56 1010.9
20260504223817 74 328 0.9 3.5 0.00 0.00 0.00 56 1010.8
20260504223716 74 344 0.9 3.5 0.00 0.00 0.00 56 1010.9
20260504223617 74 345 0.9 3.5 0.00 0.00 0.00 56 1010.9
20260504223517 74 313 0.9 2.6 0.00 0.00 0.00 56 1010.9
20260504223414 73 0 0.9 2.6 0.00 0.00 0.00 57 1010.9
20260504223311 73 227 0.9 2.6 0.00 0.00 0.00 57 1010.9
20260504223212 73 198 0.9 4.3 0.00 0.00 0.00 57 1010.9
20260504223112 73 14 0.9 4.3 0.00 0.00 0.00 57 1011.0
20260504223012 73 182 1.7 4.3 0.00 0.00 0.00 56 1011.0
20260504222912 73 272 0.9 4.3 0.00 0.00 0.00 56 1011.0
20260504222812 73 233 1.7 4.3 0.00 0.00 0.00 56 1011.0
20260504222712 73 14 1.7 4.3 0.00 0.00 0.00 55 1011.0
20260504222612 73 56 1.7 4.3 0.00 0.00 0.00 56 1011.1
20260504222513 73 186 1.7 4.3 0.00 0.00 0.00 55 1011.1
20260504222412 73 26 1.7 4.3 0.00 0.00 0.00 56 1011.2
20260504222312 74 217 1.7 4.3 0.00 0.00 0.00 56 1011.2
20260504222212 74 179 1.7 4.3 0.00 0.00 0.00 55 1011.2
20260504222112 74 235 1.7 4.3 0.00 0.00 0.00 54 1011.2
20260504222012 74 271 0.9 4.3 0.00 0.00 0.00 54 1011.2
20260504221912 74 318 1.7 4.3 0.00 0.00 0.00 54 1011.2
20260504221825 74 203 0.9 4.3 0.00 0.00 0.00 55 1011.2
20260504221813 74 195 0.9 4.3 0.00 0.00 0.00 54 1011.2
20260504221612 74 0 0.9 4.3 0.00 0.00 0.00 54 1011.2
20260504221558 74 39 0.9 4.3 0.00 0.00 0.00 55 1011.2
20260504221412 74 243 0.9 2.6 0.00 0.00 0.00 56 1011.2
20260504221313 74 184 0.9 3.5 0.00 0.00 0.00 56 1011.2
20260504221212 74 282 0.9 3.5 0.00 0.00 0.00 55 1011.2
20260504221112 74 226 0.9 3.5 0.00 0.00 0.00 55 1011.2
20260504221013 74 269 0.9 3.5 0.00 0.00 0.00 55 1011.3
20260504220913 74 256 0.9 3.5 0.00 0.00 0.00 55 1011.3
20260504220813 74 184 0.9 3.5 0.00 0.00 0.00 55 1011.3
20260504220712 74 259 0.9 3.5 0.00 0.00 0.00 55 1011.4
20260504220612 74 164 0.9 3.5 0.00 0.00 0.00 55 1011.3
20260504220512 74 203 1.7 3.5 0.00 0.00 0.00 55 1011.3
20260504220412 74 0 0.9 3.5 0.00 0.00 0.00 55 1011.4
20260504220313 74 41 0.9 3.5 0.00 0.00 0.00 55 1011.4
20260504220213 74 274 0.9 3.5 0.00 0.00 0.00 55 1011.4
20260504220112 74 281 0.9 3.5 0.00 0.00 0.00 54 1011.4
20260504220013 74 233 0.9 3.5 0.00 0.00 0.00 54 1011.4
20260504215913 74 52 0.9 3.5 0.00 0.00 0.00 55 1011.5
20260504215813 73 11 0.9 3.5 0.00 0.00 0.00 56 1011.5
20260504215713 73 189 0.9 3.5 0.00 0.00 0.00 55 1011.5
20260504215612 73 352 0.9 3.5 0.00 0.00 0.00 55 1011.5
20260504215513 73 344 0.9 3.5 0.00 0.00 0.00 55 1011.5
20260504215413 73 141 0.9 3.5 0.00 0.00 0.00 55 1011.5
20260504215313 73 316 0.9 3.5 0.00 0.00 0.00 55 1011.5
20260504215209 73 47 0.9 4.3 0.00 0.00 0.00 55 1011.6
20260504215110 73 52 0.9 4.3 0.00 0.00 0.00 56 1011.6
20260504215007 73 314 0.9 4.3 0.00 0.00 0.00 55 1011.6
20260504214904 73 268 0.9 4.3 0.00 0.00 0.00 55 1011.6
20260504214804 73 268 0.9 4.3 0.00 0.00 0.00 56 1011.6
20260504214701 73 261 0.9 4.3 0.00 0.00 0.00 56 1011.6
20260504214558 73 298 0.9 4.3 0.00 0.00 0.00 56 1011.6
20260504214457 73 274 0.9 4.3 0.00 0.00 0.00 56 1011.6
20260504214357 72 19 0.9 4.3 0.00 0.00 0.00 56 1011.6
20260504214258 72 196 0.9 4.3 0.00 0.00 0.00 57 1011.6
20260504214158 72 197 1.7 4.3 0.00 0.00 0.00 57 1011.6
20260504214102 72 258 0.9 4.3 0.00 0.00 0.00 57 1011.6
20260504213958 72 287 0.9 4.3 0.00 0.00 0.00 57 1011.7
20260504213858 72 0 1.7 4.3 0.00 0.00 0.00 57 1011.6
20260504213757 72 355 1.7 4.3 0.00 0.00 0.00 58 1011.7
20260504213656 72 0 1.7 4.3 0.00 0.00 0.00 58 1011.7
20260504213557 72 346 1.7 4.3 0.00 0.00 0.00 57 1011.7
20260504213457 72 176 1.7 4.3 0.00 0.00 0.00 58 1011.7
20260504213356 72 163 1.7 4.3 0.00 0.00 0.00 58 1011.8
20260504213257 72 192 1.7 4.3 0.00 0.00 0.00 58 1011.8
20260504213157 72 182 1.7 4.3 0.00 0.00 0.00 59 1011.7
20260504213056 72 42 1.7 4.3 0.00 0.00 0.00 59 1011.7
20260504212956 72 337 1.7 4.3 0.00 0.00 0.00 59 1011.7
20260504212857 72 320 1.7 4.3 0.00 0.00 0.00 59 1011.8
20260504212756 72 237 1.7 4.3 0.00 0.00 0.00 58 1011.8
20260504212657 72 218 1.7 4.3 0.00 0.00 0.00 58 1011.8
20260504212557 72 186 0.9 6.1 0.00 0.00 0.00 58 1011.9
20260504212457 72 48 0.9 6.1 0.00 0.00 0.00 58 1011.9
20260504212357 72 0 0.9 6.1 0.00 0.00 0.00 58 1011.9
20260504212257 72 42 0.9 6.1 0.00 0.00 0.00 57 1011.9
20260504212157 72 299 0.9 6.1 0.00 0.00 0.00 57 1011.9
20260504212056 72 210 0.9 6.1 0.00 0.00 0.00 58 1011.9
20260504211957 71 270 0.9 6.1 0.00 0.00 0.00 59 1011.9
20260504211857 71 179 0.9 6.1 0.00 0.00 0.00 59 1011.9
20260504211756 71 129 0.9 6.1 0.00 0.00 0.00 58 1011.9
20260504211657 71 34 0.9 6.1 0.00 0.00 0.00 59 1012.0
20260504211556 71 55 0.9 6.1 0.00 0.00 0.00 59 1012.0
20260504211456 71 301 0.9 4.3 0.00 0.00 0.00 59 1012.0
20260504211356 71 298 0.9 4.3 0.00 0.00 0.00 59 1012.0
20260504211256 71 253 0.9 4.3 0.00 0.00 0.00 59 1012.0
20260504211157 71 233 0.9 4.3 0.00 0.00 0.00 59 1012.0
20260504211105 71 123 0.9 4.3 0.00 0.00 0.00 59 1012.0
20260504211057 70 182 1.7 4.3 0.00 0.00 0.00 60 1012.1
20260504210857 70 345 1.7 4.3 0.00 0.00 0.00 61 1012.1
20260504210756 70 70 1.7 4.3 0.00 0.00 0.00 60 1012.1
20260504210702 70 107 1.7 4.3 0.00 0.00 0.00 60 1012.1
20260504210557 70 285 1.7 4.3 0.00 0.00 0.00 60 1012.1
20260504210457 70 109 1.7 4.3 0.00 0.00 0.00 61 1012.1
20260504210357 70 100 1.7 4.3 0.00 0.00 0.00 61 1012.1
20260504210256 70 214 1.7 4.3 0.00 0.00 0.00 60 1012.1
20260504210156 70 0 1.7 4.3 0.00 0.00 0.00 60 1012.1
20260504210057 70 166 1.7 4.3 0.00 0.00 0.00 60 1012.2
20260504205957 70 177 0.9 5.2 0.00 0.00 0.00 61 1012.2
20260504205856 70 197 1.7 5.2 0.00 0.00 0.00 60 1012.2
20260504205756 70 190 1.7 5.2 0.00 0.00 0.00 59 1012.2
20260504205657 70 165 1.7 5.2 0.00 0.00 0.00 61 1012.3
20260504205556 70 16 1.7 5.2 0.00 0.00 0.00 61 1012.3
20260504205453 70 45 0.9 5.2 0.00 0.00 0.00 61 1012.3
20260504205351 69 344 0.9 5.2 0.00 0.00 0.00 62 1012.3
20260504205250 69 120 1.7 5.2 0.00 0.00 0.00 62 1012.3
20260504205146 69 79 1.7 5.2 0.00 0.00 0.00 63 1012.3
20260504205047 69 123 1.7 5.2 0.00 0.00 0.00 62 1012.3
20260504204953 69 169 1.7 5.2 0.00 0.00 0.00 62 1012.3
20260504204847 69 244 1.7 4.3 0.00 0.00 0.00 61 1012.3
20260504204747 69 127 1.7 4.3 0.00 0.00 0.00 62 1012.4
20260504204647 69 289 1.7 4.3 0.00 0.00 0.00 62 1012.4
20260504204547 69 0 1.7 4.3 0.00 0.00 0.00 62 1012.4
20260504204455 69 295 1.7 4.3 0.00 0.00 0.00 62 1012.4
20260504204347 69 219 1.7 4.3 0.00 0.00 0.00 62 1012.4
20260504204247 69 175 1.7 4.3 0.00 0.00 0.00 62 1012.5
20260504204147 69 296 1.7 4.3 0.00 0.00 0.00 63 1012.5
20260504204046 69 203 1.7 4.3 0.00 0.00 0.00 62 1012.5
20260504203954 70 195 1.7 4.3 0.00 0.00 0.00 62 1012.5
20260504203846 70 179 0.9 3.5 0.00 0.00 0.00 62 1012.5
20260504203748 70 220 0.9 3.5 0.00 0.00 0.00 61 1012.5
20260504203648 69 187 0.9 3.5 0.00 0.00 0.00 61 1012.5
20260504203547 69 178 0.9 3.5 0.00 0.00 0.00 61 1012.5
20260504203453 69 65 0.9 3.5 0.00 0.00 0.00 61 1012.6
20260504203346 69 154 0.9 3.5 0.00 0.00 0.00 61 1012.6
20260504203247 69 79 0.9 3.5 0.00 0.00 0.00 61 1012.6
20260504203147 69 142 0.9 5.2 0.00 0.00 0.00 62 1012.6
20260504203047 69 129 1.7 5.2 0.00 0.00 0.00 63 1012.6
20260504202953 69 289 1.7 5.2 0.00 0.00 0.00 63 1012.6
20260504202847 69 192 1.7 5.2 0.00 0.00 0.00 63 1012.6
20260504202747 68 165 1.7 5.2 0.00 0.00 0.00 64 1012.6
20260504202647 68 290 1.7 5.2 0.00 0.00 0.00 64 1012.6
20260504202454 68 357 1.7 5.2 0.00 0.00 0.00 63 1012.6
20260504202347 68 46 0.9 5.2 0.00 0.00 0.00 63 1012.7
20260504202247 68 189 0.9 5.2 0.00 0.00 0.00 63 1012.7
20260504202147 68 182 0.9 5.2 0.00 0.00 0.00 64 1012.7
20260504202047 68 70 0.9 3.5 0.00 0.00 0.00 63 1012.7
20260504201954 67 157 0.9 3.5 0.00 0.00 0.00 64 1012.7
20260504201847 67 237 1.7 3.5 0.00 0.00 0.00 65 1012.7
20260504201747 67 314 1.7 3.5 0.00 0.00 0.00 66 1012.7
20260504201647 67 187 1.7 3.5 0.00 0.00 0.00 66 1012.7
20260504201548 67 184 1.7 3.5 0.00 0.00 0.00 66 1012.7
20260504201454 67 139 1.7 3.5 0.00 0.00 0.00 66 1012.7
20260504201347 67 225 1.7 4.3 0.00 0.00 0.00 66 1012.7
20260504201247 67 158 1.7 4.3 0.00 0.00 0.00 65 1012.7
20260504201148 67 213 1.7 4.3 0.00 0.00 0.00 66 1012.8
20260504201047 67 223 1.7 4.3 0.00 0.00 0.00 65 1012.8
20260504200953 67 179 1.7 4.3 0.00 0.00 0.00 66 1012.8
20260504200847 67 184 1.7 4.3 0.00 0.00 0.00 66 1012.9
20260504200747 67 187 1.7 4.3 0.00 0.00 0.00 65 1012.8
20260504200648 67 217 1.7 4.3 0.00 0.00 0.00 66 1012.9
20260504200548 67 217 1.7 4.3 0.00 0.00 0.00 66 1012.9
20260504200454 67 46 0.9 4.3 0.00 0.00 0.00 65 1012.9
20260504200348 67 35 0.9 4.3 0.00 0.00 0.00 66 1012.9
20260504200247 67 358 0.9 4.3 0.00 0.00 0.00 66 1012.9
20260504200147 67 10 0.9 4.3 0.00 0.00 0.00 67 1012.9
20260504200047 67 329 0.9 4.3 0.00 0.00 0.00 65 1012.9
20260504195954 67 64 0.9 4.3 0.00 0.00 0.00 64 1012.9
20260504195848 67 234 0.9 3.5 0.00 0.00 0.00 65 1012.9
20260504195747 67 0 0.9 3.5 0.00 0.00 0.00 65 1012.9
20260504195648 67 206 0.9 3.5 0.00 0.00 0.00 65 1012.9
20260504195600 67 131 0.9 3.5 0.00 0.00 0.00 66 1013.0
20260504195552 66 90 0.9 3.5 0.00 0.00 0.00 66 1013.0
20260504195348 66 215 0.9 3.5 0.00 0.00 0.00 66 1013.0
20260504195247 66 50 0.9 3.5 0.00 0.00 0.00 67 1012.9
20260504195145 66 179 0.9 3.5 0.00 0.00 0.00 67 1013.0
20260504195045 66 75 1.7 4.3 0.00 0.00 0.00 67 1013.0
20260504194950 66 271 1.7 4.3 0.00 0.00 0.00 66 1013.0
20260504194844 66 171 1.7 4.3 0.00 0.00 0.00 66 1013.0
20260504194744 66 164 1.7 4.3 0.00 0.00 0.00 67 1013.0
20260504194642 66 56 1.7 4.3 0.00 0.00 0.00 67 1013.0
20260504194541 66 191 1.7 4.3 0.00 0.00 0.00 68 1013.0
20260504194342 66 256 0.9 4.3 0.00 0.00 0.00 68 1013.0
20260504194242 66 328 1.7 4.3 0.00 0.00 0.00 67 1013.0
20260504194142 66 161 1.7 4.3 0.00 0.00 0.00 67 1013.0
20260504194042 66 198 0.9 4.3 0.00 0.00 0.00 67 1013.0
20260504193841 66 87 0.9 3.5 0.00 0.00 0.00 68 1013.0
20260504193741 65 0 0.9 3.5 0.00 0.00 0.00 67 1013.0
20260504193639 65 158 0.9 3.5 0.00 0.00 0.00 68 1013.0
20260504193539 65 268 0.9 3.5 0.00 0.00 0.00 68 1013.0
20260504193437 65 184 0.9 3.5 0.00 0.00 0.00 67 1013.0
20260504193337 65 276 0.9 4.3 0.00 0.00 0.00 68 1013.0
20260504193236 65 265 0.9 4.3 0.00 0.00 0.00 68 1013.1
20260504193136 65 274 0.9 4.3 0.00 0.00 0.00 70 1013.1
20260504193035 65 0 0.9 4.3 0.00 0.00 0.00 69 1013.1
20260504192935 64 184 0.9 4.3 0.00 0.00 0.00 70 1013.0
20260504192835 64 6 1.7 5.2 0.00 0.00 0.00 70 1013.0
20260504192737 64 54 1.7 5.2 0.00 0.00 0.00 70 1013.0
20260504192634 64 0 1.7 5.2 0.00 0.00 0.00 70 1013.0
20260504192535 64 249 1.7 5.2 0.00 0.00 0.00 71 1013.1
20260504192435 64 248 1.7 5.2 0.00 0.00 0.00 71 1013.0
20260504192335 64 205 1.7 5.2 0.00 0.00 0.00 71 1013.0
20260504192235 63 213 1.7 5.2 0.00 0.00 0.00 71 1013.1
20260504192136 63 179 1.7 5.2 0.00 0.00 0.00 72 1013.1
20260504192035 63 191 1.7 5.2 0.00 0.00 0.00 71 1013.1
20260504191935 63 235 1.7 5.2 0.00 0.00 0.00 71 1013.1
20260504191835 63 25 0.9 5.2 0.00 0.00 0.00 71 1013.1
20260504191737 63 241 0.9 5.2 0.00 0.00 0.00 72 1013.2
20260504191635 63 187 1.7 5.2 0.00 0.00 0.00 73 1013.2
20260504191535 62 183 1.7 5.2 0.00 0.00 0.00 73 1013.2
20260504191435 62 318 1.7 3.5 0.00 0.00 0.00 73 1013.2
20260504191335 62 181 1.7 3.5 0.00 0.00 0.00 74 1013.2
20260504191235 62 0 1.7 3.5 0.00 0.00 0.00 74 1013.2
20260504191136 62 273 1.7 3.5 0.00 0.00 0.00 74 1013.2
20260504191035 62 4 0.9 3.5 0.00 0.00 0.00 74 1013.2
20260504190935 62 57 0.9 3.5 0.00 0.00 0.00 74 1013.2
20260504190835 62 197 0.9 3.5 0.00 0.00 0.00 74 1013.2
20260504190738 62 204 0.9 3.5 0.00 0.00 0.00 75 1013.2
20260504190635 62 71 0.9 3.5 0.00 0.00 0.00 74 1013.2
20260504190536 62 248 0.9 3.5 0.00 0.00 0.00 75 1013.2
20260504190435 62 269 0.9 4.3 0.00 0.00 0.00 75 1013.2
20260504190336 62 287 1.7 4.3 0.00 0.00 0.00 74 1013.2
20260504190235 62 111 1.7 4.3 0.00 0.00 0.00 74 1013.2
20260504190136 62 251 1.7 4.3 0.00 0.00 0.00 74 1013.2
20260504190036 62 181 1.7 4.3 0.00 0.00 0.00 74 1013.2
20260504185935 62 211 1.7 4.3 0.00 0.00 0.00 74 1013.3
20260504185835 62 161 1.7 4.3 0.00 0.00 0.00 75 1013.3
20260504185735 62 7 1.7 4.3 0.00 0.00 0.00 75 1013.3
20260504185633 62 220 1.7 4.3 0.00 0.00 0.00 74 1013.3
20260504185532 62 23 1.7 4.3 0.00 0.00 0.00 75 1013.3
20260504185432 62 173 1.7 4.3 0.00 0.00 0.00 74 1013.3
20260504185330 62 160 1.7 4.3 0.00 0.00 0.00 75 1013.3
20260504185230 62 284 1.7 4.3 0.00 0.00 0.00 75 1013.3
20260504185130 62 165 1.7 4.3 0.00 0.00 0.00 75 1013.3
20260504185031 62 205 1.7 4.3 0.00 0.00 0.00 75 1013.3
20260504184931 62 181 1.7 4.3 0.00 0.00 0.00 75 1013.4
20260504184828 62 180 1.7 3.5 0.00 0.00 0.00 75 1013.4
20260504184727 62 253 1.7 3.5 0.00 0.00 0.00 74 1013.4
20260504184629 62 189 1.7 3.5 0.00 0.00 0.00 75 1013.4
20260504184525 62 239 1.7 3.5 0.00 0.00 0.00 75 1013.4
20260504184425 62 104 1.7 3.5 0.00 0.00 0.00 75 1013.4
20260504184325 61 93 1.7 3.5 0.00 0.00 0.00 75 1013.4
20260504184225 61 68 1.7 3.5 0.00 0.00 0.00 75 1013.4
20260504184126 61 210 1.7 3.5 0.00 0.00 0.00 75 1013.4
20260504184026 61 244 1.7 3.5 0.00 0.00 0.00 75 1013.4
20260504183925 61 144 1.7 3.5 0.00 0.00 0.00 75 1013.4
20260504183826 61 226 0.9 3.5 0.00 0.00 0.00 75 1013.4
20260504183726 61 200 1.7 3.5 0.00 0.00 0.00 76 1013.4
20260504183627 61 17 0.9 3.5 0.00 0.00 0.00 76 1013.3
20260504183525 61 53 0.9 3.5 0.00 0.00 0.00 76 1013.3
20260504183426 61 185 0.9 3.5 0.00 0.00 0.00 76 1013.3
20260504183325 61 79 1.7 3.5 0.00 0.00 0.00 76 1013.3
20260504183225 61 180 0.9 3.5 0.00 0.00 0.00 76 1013.3
20260504183126 61 184 0.9 2.6 0.00 0.00 0.00 77 1013.3
20260504183024 61 177 0.9 2.6 0.00 0.00 0.00 77 1013.3
20260504182925 61 77 0.9 2.6 0.00 0.00 0.00 77 1013.3
20260504182826 60 164 0.9 3.5 0.00 0.00 0.00 77 1013.3
20260504182725 60 75 1.7 3.5 0.00 0.00 0.00 77 1013.3
20260504182627 60 33 1.7 3.5 0.00 0.00 0.00 77 1013.3
20260504182525 60 127 1.7 3.5 0.00 0.00 0.00 78 1013.3
20260504182425 60 118 1.7 3.5 0.00 0.00 0.00 77 1013.3
20260504182325 60 143 1.7 3.5 0.00 0.00 0.00 78 1013.3
20260504182225 60 272 1.7 3.5 0.00 0.00 0.00 78 1013.3
20260504182127 60 14 1.7 3.5 0.00 0.00 0.00 78 1013.3
20260504182025 60 46 1.7 3.5 0.00 0.00 0.00 78 1013.2
20260504181925 60 182 1.7 3.5 0.00 0.00 0.00 77 1013.3
20260504181825 60 114 1.7 4.3 0.00 0.00 0.00 77 1013.2
20260504181726 60 170 1.7 4.3 0.00 0.00 0.00 77 1013.3
20260504181627 60 117 1.7 4.3 0.00 0.00 0.00 77 1013.3
20260504181525 60 259 1.7 4.3 0.00 0.00 0.00 77 1013.3
20260504181426 60 138 1.7 4.3 0.00 0.00 0.00 78 1013.3
20260504181325 60 205 1.7 4.3 0.00 0.00 0.00 78 1013.3
20260504181225 60 172 1.7 4.3 0.00 0.00 0.00 78 1013.3
20260504181126 60 98 1.7 4.3 0.00 0.00 0.00 78 1013.3
20260504181025 60 177 1.7 4.3 0.00 0.00 0.00 78 1013.3
20260504180925 60 211 1.7 4.3 0.00 0.00 0.00 78 1013.3
20260504180825 60 176 0.9 2.6 0.00 0.00 0.00 79 1013.3
20260504180725 60 65 0.9 2.6 0.00 0.00 0.00 79 1013.3
20260504180626 59 160 0.9 2.6 0.00 0.00 0.00 79 1013.3
20260504180522 59 191 0.9 2.6 0.00 0.00 0.00 79 1013.4
20260504180423 59 146 0.9 2.6 0.00 0.00 0.00 79 1013.3
20260504180323 59 143 0.9 2.6 0.00 0.00 0.00 79 1013.3
20260504180222 59 174 0.9 2.6 0.00 0.00 0.00 79 1013.3
20260504180124 59 249 0.9 2.6 0.00 0.00 0.00 79 1013.3
20260504180022 59 246 0.9 2.6 0.00 0.00 0.00 79 1013.3
20260504175922 59 92 0.9 2.6 0.00 0.00 0.00 80 1013.3
20260504175822 59 66 0.9 3.5 0.00 0.00 0.00 80 1013.4
20260504175723 59 178 0.9 3.5 0.00 0.00 0.00 79 1013.3
20260504175622 59 209 0.9 3.5 0.00 0.00 0.00 80 1013.3
20260504175521 59 138 0.9 3.5 0.00 0.00 0.00 80 1013.3
20260504175421 59 224 0.9 3.5 0.00 0.00 0.00 80 1013.3
20260504175318 59 238 0.9 3.5 0.00 0.00 0.00 80 1013.3
20260504175219 59 195 0.9 3.5 0.00 0.00 0.00 80 1013.3
20260504175121 59 94 0.9 3.5 0.00 0.00 0.00 80 1013.3
20260504175018 59 162 0.9 3.5 0.00 0.00 0.00 81 1013.3
20260504174918 59 157 0.9 3.5 0.00 0.00 0.00 81 1013.3
20260504174818 59 73 0.9 2.6 0.00 0.00 0.00 81 1013.3
20260504174718 58 86 0.9 2.6 0.00 0.00 0.00 81 1013.3
20260504174621 58 171 0.9 2.6 0.00 0.00 0.00 80 1013.3
20260504174518 58 177 0.9 2.6 0.00 0.00 0.00 80 1013.4
20260504174418 58 205 0.9 2.6 0.00 0.00 0.00 81 1013.4
20260504174316 58 167 0.9 2.6 0.00 0.00 0.00 81 1013.4
20260504174212 58 196 0.9 2.6 0.00 0.00 0.00 81 1013.4
20260504174112 58 78 0.9 2.6 0.00 0.00 0.00 81 1013.3
20260504174012 58 151 0.9 2.6 0.00 0.00 0.00 81 1013.3
20260504173913 58 79 0.9 2.6 0.00 0.00 0.00 81 1013.3
20260504173813 58 273 0.9 2.6 0.00 0.00 0.00 81 1013.3
20260504173713 58 124 0.9 2.6 0.00 0.00 0.00 82 1013.3
20260504173609 58 184 0.9 2.6 0.00 0.00 0.00 82 1013.3
20260504173509 58 78 0.9 5.2 0.00 0.00 0.00 82 1013.3
20260504173409 58 0 0.9 5.2 0.00 0.00 0.00 82 1013.3
20260504173307 58 185 1.7 5.2 0.00 0.00 0.00 82 1013.2
20260504173206 58 106 1.7 5.2 0.00 0.00 0.00 83 1013.3
20260504173107 58 181 0.9 5.2 0.00 0.00 0.00 82 1013.2
20260504173007 58 78 0.9 5.2 0.00 0.00 0.00 82 1013.3
20260504172907 58 91 0.9 5.2 0.00 0.00 0.00 83 1013.3
20260504172807 58 79 1.7 5.2 0.00 0.00 0.00 83 1013.3
20260504172707 58 96 1.7 5.2 0.00 0.00 0.00 82 1013.3
20260504172606 58 89 1.7 5.2 0.00 0.00 0.00 82 1013.3
20260504172507 58 180 1.7 5.2 0.00 0.00 0.00 83 1013.3
20260504172406 58 150 1.7 5.2 0.00 0.00 0.00 83 1013.3
20260504172306 58 186 1.7 5.2 0.00 0.00 0.00 83 1013.3
20260504172206 58 130 1.7 5.2 0.00 0.00 0.00 83 1013.3
20260504172106 58 93 1.7 5.2 0.00 0.00 0.00 83 1013.3
20260504172006 58 93 1.7 5.2 0.00 0.00 0.00 83 1013.3
20260504171907 58 157 1.7 5.2 0.00 0.00 0.00 83 1013.3
20260504171807 58 164 1.7 4.3 0.00 0.00 0.00 83 1013.2
20260504171707 58 181 1.7 4.3 0.00 0.00 0.00 83 1013.2
20260504171606 58 71 0.9 3.5 0.00 0.00 0.00 83 1013.2
20260504171506 58 69 0.9 3.5 0.00 0.00 0.00 84 1013.2
20260504171406 58 76 0.9 3.5 0.00 0.00 0.00 84 1013.2
20260504171306 58 68 0.9 3.5 0.00 0.00 0.00 83 1013.2
20260504171207 58 295 0.9 3.5 0.00 0.00 0.00 83 1013.2
20260504171107 58 93 0.9 3.5 0.00 0.00 0.00 83 1013.2
20260504171006 58 197 0.9 3.5 0.00 0.00 0.00 83 1013.3
20260504170907 58 166 0.9 3.5 0.00 0.00 0.00 83 1013.3
20260504170807 58 127 0.9 3.5 0.00 0.00 0.00 83 1013.2
20260504170707 58 208 0.9 3.5 0.00 0.00 0.00 83 1013.2
20260504170607 58 112 0.9 3.5 0.00 0.00 0.00 83 1013.2
20260504170507 58 184 0.9 3.5 0.00 0.00 0.00 83 1013.2
20260504170407 57 65 0.9 3.5 0.00 0.00 0.00 83 1013.2
20260504170306 57 166 0.9 2.6 0.00 0.00 0.00 83 1013.2
20260504170206 57 121 0.9 2.6 0.00 0.00 0.00 84 1013.2
20260504170107 57 151 0.9 2.6 0.00 0.00 0.00 83 1013.2